FW4770 Weather Reports


time (UTC)temp
F
wind
direction
speed
knots
gust
knots
rain 1hr
in
rain 24hr
in
rain mn
in
humidity
%
barometer
mb
20260831052458 75 252 2.6 6.1 0.00 0.00 0.00 87 1009.5
20260831052402 75 236 2.6 6.1 0.00 0.00 0.00 87 1009.5
20260831052307 75 237 3.5 6.1 0.00 0.00 0.00 87 1009.5
20260831052212 75 259 3.5 7.8 0.00 0.00 0.00 87 1009.5
20260831052101 75 248 4.3 7.8 0.00 0.00 0.00 87 1009.5
20260831052005 75 227 4.3 7.8 0.00 0.00 0.00 87 1009.5
20260831051910 75 248 4.3 7.8 0.00 0.00 0.00 87 1009.5
20260831051755 75 237 3.5 7.8 0.00 0.00 0.00 87 1009.5
20260831051719 75 250 3.5 7.8 0.00 0.00 0.00 87 1009.5
20260831051623 75 234 4.3 7.8 0.00 0.00 0.00 87 1009.5
20260831051507 75 239 5.2 7.8 0.00 0.00 0.00 87 1009.5
20260831051356 75 235 4.3 8.7 0.00 0.00 0.00 87 1009.6
20260831051321 75 240 3.5 7.8 0.00 0.00 0.00 87 1009.6
20260831051157 75 233 3.5 7.8 0.00 0.00 0.00 87 1009.7
20260831051102 75 234 3.5 7.8 0.00 0.00 0.00 87 1009.7
20260831051007 75 234 5.2 7.8 0.00 0.00 0.00 87 1009.7
20260831050912 75 250 5.2 7.8 0.00 0.00 0.00 87 1009.6
20260831050801 75 267 4.3 7.8 0.00 0.00 0.00 87 1009.7
20260831050706 75 252 4.3 7.8 0.00 0.00 0.00 87 1009.7
20260831050611 75 259 4.3 7.8 0.00 0.00 0.00 87 1009.7
20260831050456 75 232 3.5 7.8 0.00 0.00 0.00 87 1009.7
20260831050401 75 236 4.3 7.8 0.00 0.00 0.00 87 1009.8
20260831050304 75 250 5.2 7.8 0.00 0.00 0.00 87 1009.7
20260831050233 75 241 4.3 7.8 0.00 0.00 0.00 87 1009.7
20260831050110 75 265 4.3 7.8 0.00 0.00 0.00 87 1009.7
20260831050015 75 231 3.5 7.8 0.00 0.00 0.00 87 1009.7
20260831045859 75 242 3.5 7.8 0.00 0.00 0.00 86 1009.8
20260831045824 75 272 4.3 7.8 0.00 0.00 0.00 86 1009.8
20260831045708 75 268 4.3 7.8 0.00 0.00 0.00 86 1009.8
20260831045613 75 271 4.3 7.8 0.00 0.00 0.00 86 1009.8
20260831045502 75 265 4.3 7.8 0.00 0.00 0.00 86 1009.8
20260831045407 75 254 3.5 7.8 0.00 0.00 0.00 86 1009.9
20260831045312 75 275 3.5 7.8 0.00 0.00 0.00 86 1009.9
20260831045217 75 261 3.5 7.8 0.00 0.00 0.00 86 1009.9
20260831045055 75 290 5.2 7.8 0.00 0.00 0.00 86 1009.9
20260831045000 75 267 5.2 7.8 0.00 0.00 0.00 86 1009.9
20260831044908 75 267 4.3 7.8 0.00 0.00 0.00 86 1009.9
20260831044813 75 249 4.3 7.8 0.00 0.00 0.00 86 1009.9
20260831044658 75 257 4.3 7.0 0.00 0.00 0.00 86 1010.0
20260831044603 75 360 4.3 7.0 0.00 0.00 0.00 86 1009.9
20260831044508 75 222 4.3 7.0 0.00 0.00 0.00 86 1009.9
20260831044357 75 260 4.3 7.8 0.00 0.00 0.00 86 1010.0
20260831044322 75 297 3.5 7.8 0.00 0.00 0.00 86 1009.9
20260831044206 75 254 3.5 7.8 0.00 0.00 0.00 86 1009.9
20260831044111 75 242 4.3 7.8 0.00 0.00 0.00 86 1009.9
20260831043956 75 236 4.3 7.8 0.00 0.00 0.00 86 1010.0
20260831043921 75 281 3.5 7.8 0.00 0.00 0.00 86 1010.0
20260831043824 75 248 3.5 7.8 0.00 0.00 0.00 86 1010.0
20260831043708 75 250 4.3 11.3 0.00 0.00 0.00 86 1010.0
20260831043617 75 253 5.2 11.3 0.00 0.00 0.00 86 1010.0
20260831043455 75 262 3.5 11.3 0.00 0.00 0.00 86 1010.1
20260831043419 76 263 3.5 11.3 0.00 0.00 0.00 86 1010.1
20260831043323 76 261 4.3 11.3 0.00 0.00 0.00 86 1010.1
20260831043206 76 246 5.2 11.3 0.00 0.00 0.00 86 1010.1
20260831043111 76 229 3.5 11.3 0.00 0.00 0.00 86 1010.1
20260831043000 76 260 4.3 11.3 0.00 0.00 0.00 86 1010.0
20260831042925 76 224 7.0 11.3 0.00 0.00 0.00 86 1009.9
20260831042809 76 293 6.1 11.3 0.00 0.00 0.00 86 1009.9
20260831042734 76 296 5.2 9.6 0.00 0.00 0.00 86 1009.9
20260831042558 76 261 6.1 11.3 0.00 0.00 0.00 85 1009.9
20260831042503 76 291 6.1 11.3 0.00 0.00 0.00 85 1009.9
20260831042408 76 252 6.1 11.3 0.00 0.00 0.00 85 1009.9
20260831042257 76 257 4.3 11.3 0.00 0.00 0.00 85 1009.9
20260831042202 76 247 4.3 11.3 0.00 0.00 0.00 85 1010.0
20260831042127 76 240 5.2 11.3 0.00 0.00 0.00 85 1010.0
20260831042011 76 276 5.2 11.3 0.00 0.00 0.00 85 1010.0
20260831041915 76 254 6.1 11.3 0.00 0.00 0.00 85 1010.0
20260831041819 76 296 6.1 11.3 0.00 0.00 0.00 85 1010.0
20260831041702 76 252 6.1 11.3 0.00 0.00 0.00 85 1010.0
20260831041627 76 253 4.3 9.6 0.00 0.00 0.00 85 1010.0
20260831041513 76 255 5.2 9.6 0.00 0.00 0.00 85 1010.0
20260831041358 76 269 5.2 9.6 0.00 0.00 0.00 85 1010.0
20260831041323 76 284 4.3 9.6 0.00 0.00 0.00 85 1009.9
20260831041207 76 261 4.3 9.6 0.00 0.00 0.00 85 1009.9
20260831041112 76 290 6.1 9.6 0.00 0.00 0.00 85 1009.9
20260831041017 76 259 5.2 9.6 0.00 0.00 0.00 85 1009.9
20260831040904 76 268 4.3 10.4 0.00 0.00 0.00 85 1010.0
20260831040809 76 235 4.3 10.4 0.00 0.00 0.00 85 1010.0
20260831040654 76 244 5.2 10.4 0.00 0.00 0.00 85 1010.0
20260831040558 76 252 6.1 10.4 0.00 0.00 0.00 85 1010.0
20260831040523 76 283 5.2 10.4 0.00 0.00 0.00 85 1010.0
20260831040407 76 254 4.3 10.4 0.00 0.00 0.00 85 1010.0
20260831040256 76 265 5.2 10.4 0.00 0.00 0.00 84 1009.9
20260831040201 76 252 5.2 10.4 0.00 0.00 0.00 84 1009.9
20260831040106 76 294 4.3 10.4 0.00 0.00 0.00 84 1009.9
20260831040011 76 255 3.5 10.4 0.00 0.00 0.00 84 1009.9
20260831035855 76 360 5.2 10.4 0.00 0.00 0.00 84 1009.9
20260831035800 76 254 6.1 10.4 0.00 0.00 0.00 84 1009.8
20260831035708 76 236 7.0 10.4 0.00 0.00 0.00 84 1009.8
20260831035613 76 261 7.0 10.4 0.00 0.00 0.00 84 1009.8
20260831035537 76 246 6.1 10.4 0.00 0.00 0.00 84 1009.9
20260831035355 76 245 4.3 10.4 0.00 0.00 0.00 84 1009.9
20260831035300 76 298 4.3 10.4 0.00 0.00 0.00 84 1009.8
20260831035224 76 222 6.1 10.4 0.00 0.00 0.00 84 1009.9
20260831035108 76 271 6.1 10.4 0.00 0.00 0.00 84 1009.8
20260831035016 76 259 6.1 10.4 0.00 0.00 0.00 84 1009.8
20260831034859 76 263 6.1 9.6 0.00 0.00 0.00 84 1009.8
20260831034824 76 270 6.1 11.3 0.00 0.00 0.00 84 1009.8
20260831034707 76 257 7.0 11.3 0.00 0.00 0.00 84 1009.8
20260831034612 76 254 6.1 11.3 0.00 0.00 0.00 84 1009.8
20260831034457 76 281 4.3 11.3 0.00 0.00 0.00 84 1009.9
20260831034402 76 269 5.2 11.3 0.00 0.00 0.00 84 1009.9
20260831034310 76 230 4.3 11.3 0.00 0.00 0.00 84 1009.9
20260831034212 76 280 6.1 11.3 0.00 0.00 0.00 84 1009.9
20260831034056 76 267 7.0 11.3 0.00 0.00 0.00 84 1009.8
20260831034001 76 267 6.1 11.3 0.00 0.00 0.00 83 1009.8
20260831033905 76 273 5.2 9.6 0.00 0.00 0.00 83 1009.8
20260831033810 77 238 6.1 9.6 0.00 0.00 0.00 83 1009.8
20260831033719 77 242 4.3 9.6 0.00 0.00 0.00 83 1009.8
20260831033603 77 251 5.2 9.6 0.00 0.00 0.00 83 1009.9
20260831033508 77 281 4.3 9.6 0.00 0.00 0.00 83 1009.9
20260831033413 77 265 4.3 9.6 0.00 0.00 0.00 83 1009.8
20260831033257 77 235 4.3 7.8 0.00 0.00 0.00 83 1009.8
20260831033202 77 277 4.3 7.8 0.00 0.00 0.00 83 1009.8
20260831033126 77 223 4.3 7.8 0.00 0.00 0.00 83 1009.9
20260831032954 77 251 4.3 7.8 0.00 0.00 0.00 83 1009.9
20260831032859 77 231 4.3 7.8 0.00 0.00 0.00 83 1009.9
20260831032804 77 251 3.5 7.8 0.00 0.00 0.00 82 1010.0
20260831032709 77 265 3.5 8.7 0.00 0.00 0.00 82 1010.0
20260831032554 77 254 4.3 8.7 0.00 0.00 0.00 82 1010.0
20260831032459 77 259 4.3 8.7 0.00 0.00 0.00 82 1009.9
20260831032407 77 276 4.3 8.7 0.00 0.00 0.00 82 1009.9
20260831032312 77 252 4.3 8.7 0.00 0.00 0.00 82 1009.9
20260831032217 77 253 3.5 8.7 0.00 0.00 0.00 82 1009.8
20260831032055 77 242 3.5 8.7 0.00 0.00 0.00 82 1009.8
20260831032020 77 240 4.3 8.7 0.00 0.00 0.00 82 1009.8
20260831031904 77 270 5.2 8.7 0.00 0.00 0.00 82 1009.8
20260831031813 77 244 5.2 8.7 0.00 0.00 0.00 82 1009.8
20260831031658 77 247 6.1 9.6 0.00 0.00 0.00 82 1009.7
20260831031622 77 245 6.1 9.6 0.00 0.00 0.00 82 1009.7
20260831031506 77 273 4.3 10.4 0.00 0.00 0.00 82 1009.7
20260831031431 77 273 4.3 10.4 0.00 0.00 0.00 82 1009.7
20260831031315 77 244 3.5 10.4 0.00 0.00 0.00 82 1009.7
20260831031218 77 228 5.2 10.4 0.00 0.00 0.00 81 1009.7
20260831031122 77 261 6.1 10.4 0.00 0.00 0.00 81 1009.8
20260831031010 77 267 5.2 10.4 0.00 0.00 0.00 81 1009.8
20260831030854 77 261 4.3 10.4 0.00 0.00 0.00 81 1009.7
20260831030819 77 252 5.2 10.4 0.00 0.00 0.00 81 1009.7
20260831030657 77 256 6.1 11.3 0.00 0.00 0.00 81 1009.7
20260831030602 77 236 5.2 11.3 0.00 0.00 0.00 81 1009.7
20260831030507 77 247 4.3 11.3 0.00 0.00 0.00 81 1009.6
20260831030416 77 268 5.2 11.3 0.00 0.00 0.00 81 1009.6
20260831030300 77 259 5.2 11.3 0.00 0.00 0.00 81 1009.6
20260831030205 77 228 4.3 11.3 0.00 0.00 0.00 81 1009.6
20260831030110 77 227 4.3 11.3 0.00 0.00 0.00 81 1009.6
20260831030015 78 232 5.2 11.3 0.00 0.00 0.00 81 1009.6
20260831025940 78 254 6.1 11.3 0.00 0.00 0.00 81 1009.5
20260831025756 78 259 5.2 8.7 0.00 0.00 0.00 81 1009.4
20260831025725 78 292 5.2 7.8 0.00 0.00 0.00 80 1009.5
20260831025609 78 236 4.3 7.8 0.00 0.00 0.00 80 1009.5
20260831025454 78 244 3.5 7.8 0.00 0.00 0.00 80 1009.5
20260831025359 78 241 4.3 10.4 0.00 0.00 0.00 80 1009.5
20260831025306 78 242 4.3 11.3 0.00 0.00 0.00 80 1009.4
20260831025229 78 225 5.2 11.3 0.00 0.00 0.00 80 1009.4
20260831025057 78 227 6.1 11.3 0.00 0.00 0.00 80 1009.5
20260831025002 78 215 6.1 12.2 0.00 0.00 0.00 79 1009.5
20260831024907 78 251 5.2 12.2 0.00 0.00 0.00 79 1009.5
20260831024812 78 236 5.2 12.2 0.00 0.00 0.00 79 1009.5
20260831024656 78 264 7.8 12.2 0.00 0.00 0.00 79 1009.5
20260831024600 78 254 8.7 12.2 0.00 0.00 0.00 79 1009.6
20260831024524 78 285 7.8 12.2 0.00 0.00 0.00 79 1009.6
20260831024412 78 248 7.0 12.2 0.00 0.00 0.00 79 1009.6
20260831024317 78 232 7.0 12.2 0.00 0.00 0.00 79 1009.6
20260831024155 78 237 7.8 12.2 0.00 0.00 0.00 79 1009.6
20260831024100 78 251 7.0 12.2 0.00 0.00 0.00 78 1009.6
20260831024005 78 250 6.1 11.3 0.00 0.00 0.00 78 1009.6
20260831023909 78 234 5.2 11.3 0.00 0.00 0.00 78 1009.6
20260831023758 78 250 5.2 11.3 0.00 0.00 0.00 78 1009.7
20260831023703 78 255 6.1 13.0 0.00 0.00 0.00 78 1009.7
20260831023607 79 217 6.1 13.0 0.00 0.00 0.00 78 1009.7
20260831023532 79 216 5.2 13.0 0.00 0.00 0.00 78 1009.7
20260831023355 79 237 7.0 13.0 0.00 0.00 0.00 77 1009.7
20260831023300 79 253 7.8 13.0 0.00 0.00 0.00 77 1009.7
20260831023209 79 242 7.0 13.0 0.00 0.00 0.00 77 1009.7
20260831023054 79 232 7.0 13.0 0.00 0.00 0.00 77 1009.7
20260831022959 79 222 7.8 13.0 0.00 0.00 0.00 77 1009.7
20260831022924 79 284 7.8 13.0 0.00 0.00 0.00 77 1009.7
20260831022807 79 225 7.0 11.3 0.00 0.00 0.00 77 1009.7
20260831022712 79 259 5.2 11.3 0.00 0.00 0.00 76 1009.7
20260831022601 79 252 6.1 11.3 0.00 0.00 0.00 76 1009.7
20260831022506 79 231 7.0 11.3 0.00 0.00 0.00 76 1009.7
20260831022411 79 245 7.8 11.3 0.00 0.00 0.00 76 1009.7
20260831022256 79 265 7.0 11.3 0.00 0.00 0.00 76 1009.7
20260831022200 79 247 5.2 11.3 0.00 0.00 0.00 76 1009.7
20260831022104 79 224 5.2 11.3 0.00 0.00 0.00 76 1009.6
20260831022029 79 242 6.1 11.3 0.00 0.00 0.00 76 1009.6
20260831021857 79 238 5.2 12.2 0.00 0.00 0.00 75 1009.7
20260831021801 80 224 5.2 12.2 0.00 0.00 0.00 75 1009.7
20260831021726 80 268 6.1 12.2 0.00 0.00 0.00 75 1009.6
20260831021610 80 228 6.1 12.2 0.00 0.00 0.00 75 1009.6
20260831021515 80 274 5.2 12.2 0.00 0.00 0.00 75 1009.6
20260831021359 80 289 6.1 12.2 0.00 0.00 0.00 75 1009.6
20260831021308 80 263 7.0 12.2 0.00 0.00 0.00 75 1009.6
20260831021213 80 233 7.0 12.2 0.00 0.00 0.00 75 1009.5
20260831021117 80 220 7.0 12.2 0.00 0.00 0.00 75 1009.5
20260831020955 80 261 5.2 12.2 0.00 0.00 0.00 75 1009.5
20260831020859 80 267 6.1 13.0 0.00 0.00 0.00 75 1009.6
20260831020824 80 265 7.0 13.0 0.00 0.00 0.00 74 1009.5
20260831020708 80 257 6.1 13.0 0.00 0.00 0.00 74 1009.5
20260831020617 80 236 5.2 13.0 0.00 0.00 0.00 74 1009.4
20260831020455 80 225 7.0 13.0 0.00 0.00 0.00 74 1009.5
20260831020400 80 289 7.0 13.0 0.00 0.00 0.00 74 1009.5
20260831020324 80 241 7.0 13.0 0.00 0.00 0.00 74 1009.4
20260831020208 80 265 7.8 13.0 0.00 0.00 0.00 74 1009.4
20260831020112 80 252 7.0 13.0 0.00 0.00 0.00 74 1009.5
20260831020001 80 258 7.0 13.0 0.00 0.00 0.00 74 1009.6
20260831015906 80 238 7.8 13.0 0.00 0.00 0.00 74 1009.5
20260831015811 81 273 7.8 13.9 0.00 0.00 0.00 74 1009.5
20260831015715 81 260 8.7 13.9 0.00 0.00 0.00 74 1009.6
20260831015640 81 257 8.7 13.9 0.00 0.00 0.00 74 1009.7
20260831015457 81 269 8.7 13.9 0.00 0.00 0.00 73 1009.6
20260831015402 81 225 7.8 13.9 0.00 0.00 0.00 74 1009.6
20260831015311 81 250 7.8 13.9 0.00 0.00 0.00 73 1009.6
20260831015216 81 266 7.8 13.9 0.00 0.00 0.00 74 1009.8
20260831015100 81 232 7.8 13.9 0.00 0.00 0.00 74 1009.7
20260831015004 81 236 7.8 18.2 0.00 0.00 0.00 74 1009.8
20260831014909 81 283 8.7 18.2 0.00 0.00 0.00 74 1009.8
20260831014754 81 254 8.7 18.2 0.00 0.00 0.00 74 1009.6
20260831014703 81 238 8.7 18.2 0.00 0.00 0.00 74 1009.7
20260831014608 81 255 9.6 18.2 0.00 0.00 0.00 75 1009.7
20260831014533 81 243 8.7 18.2 0.00 0.00 0.00 75 1009.6
20260831014357 81 274 9.6 18.2 0.00 0.00 0.00 76 1009.5
20260831014302 81 235 11.3 18.2 0.00 0.00 0.00 76 1009.5
20260831014228 80 227 10.4 18.2 0.00 0.00 0.00 77 1009.6
20260831014132 80 259 9.6 15.6 0.00 0.00 0.00 78 1009.6
20260831014019 80 243 9.6 15.6 0.00 0.00 0.00 79 1009.6
20260831013857 80 231 8.7 12.2 0.00 0.00 0.00 80 1009.5
20260831013802 80 256 7.0 8.7 0.00 0.00 0.00 81 1009.5
20260831013707 80 244 7.0 9.6 0.00 0.00 0.00 82 1009.5
20260831013611 80 243 6.1 8.7 0.00 0.00 0.00 82 1009.5
20260831013456 80 236 4.3 7.8 0.00 0.00 0.00 83 1009.5
20260831013425 80 221 4.3 8.7 0.00 0.00 0.00 83 1009.5
20260831013309 80 248 5.2 8.7 0.00 0.00 0.00 83 1009.5
20260831013154 80 206 5.2 8.7 0.00 0.00 0.00 83 1009.4
20260831013058 80 221 4.3 8.7 0.00 0.00 0.00 83 1009.4
20260831013003 80 217 3.5 8.7 0.00 0.00 0.00 83 1009.4
20260831012927 80 216 4.3 8.7 0.00 0.00 0.00 83 1009.4
20260831012754 80 211 5.2 8.7 0.00 0.00 0.00 83 1009.2
20260831012659 80 215 6.1 8.7 0.00 0.00 0.00 83 1009.2
20260831012624 80 226 6.1 8.7 0.00 0.00 0.00 83 1009.2
20260831012508 80 234 5.2 8.7 0.00 0.00 0.00 83 1009.2
20260831012433 80 212 5.2 8.7 0.00 0.00 0.00 83 1009.1
20260831012256 80 192 5.2 9.6 0.00 0.00 0.00 83 1009.1
20260831012201 80 225 5.2 9.6 0.00 0.00 0.00 83 1009.0
20260831012126 80 209 5.2 9.6 0.00 0.00 0.00 83 1009.1
20260831011954 80 226 6.1 9.6 0.00 0.00 0.00 83 1009.1
20260831011919 80 220 6.1 9.6 0.00 0.00 0.00 83 1009.2
20260831011803 80 221 6.1 9.6 0.00 0.00 0.00 82 1009.1
20260831011708 80 231 6.1 9.6 0.00 0.00 0.00 82 1009.1
20260831011633 80 201 6.1 9.6 0.00 0.00 0.00 82 1009.1
20260831011517 80 209 6.1 9.6 0.00 0.00 0.00 82 1009.1
20260831011357 80 207 6.1 8.7 0.00 0.00 0.00 82 1009.1
20260831011306 80 213 6.1 8.7 0.00 0.00 0.00 82 1009.1
20260831011211 80 235 6.1 8.7 0.00 0.00 0.00 82 1009.1
20260831011055 80 221 6.1 8.7 0.00 0.00 0.00 82 1009.1
20260831011000 80 225 6.1 8.7 0.00 0.00 0.00 82 1009.1
20260831010904 80 213 6.1 8.7 0.00 0.00 0.00 82 1009.1
20260831010807 80 203 5.2 8.7 0.00 0.00 0.00 82 1009.1
20260831010656 81 219 4.3 8.7 0.00 0.00 0.00 82 1009.1
20260831010621 81 231 5.2 8.7 0.00 0.00 0.00 82 1009.1
20260831010523 81 208 5.2 8.7 0.00 0.00 0.00 82 1009.1
20260831010405 81 223 5.2 8.7 0.00 0.00 0.00 82 1009.1
20260831010310 81 200 6.1 8.7 0.00 0.00 0.00 82 1009.1
20260831010155 81 216 6.1 9.6 0.00 0.00 0.00 82 1009.1
20260831010100 81 211 6.1 8.7 0.00 0.00 0.00 82 1009.1
20260831010009 81 214 5.2 8.7 0.00 0.00 0.00 82 1009.1
20260831005934 81 215 5.2 8.7 0.00 0.00 0.00 82 1009.0
20260831005758 81 191 5.2 8.7 0.00 0.00 0.00 82 1009.0
20260831005703 81 192 4.3 8.7 0.00 0.00 0.00 82 1009.0
20260831005608 81 180 5.2 8.7 0.00 0.00 0.00 82 1009.0
20260831005512 81 174 6.1 8.7 0.00 0.00 0.00 82 1009.0
20260831005401 81 175 6.1 9.6 0.00 0.00 0.00 82 1008.9
20260831005327 81 195 5.2 9.6 0.00 0.00 0.00 82 1008.8
20260831005231 81 169 6.1 9.6 0.00 0.00 0.00 82 1008.8
20260831005134 81 173 7.0 9.6 0.00 0.00 0.00 81 1008.9
20260831004958 81 173 7.0 9.6 0.00 0.00 0.00 81 1008.8
20260831004903 81 171 7.0 9.6 0.00 0.00 0.00 81 1008.8
20260831004808 81 194 7.0 9.6 0.00 0.00 0.00 81 1008.8
20260831004733 81 157 7.0 9.6 0.00 0.00 0.00 81 1008.8
20260831004600 81 198 7.0 9.6 0.00 0.00 0.00 81 1008.8
20260831004505 81 175 6.1 9.6 0.00 0.00 0.00 81 1008.9
20260831004410 81 186 6.1 9.6 0.00 0.00 0.00 81 1008.9
20260831004255 81 188 6.1 8.7 0.00 0.00 0.00 81 1008.9
20260831004200 81 201 5.2 8.7 0.00 0.00 0.00 81 1008.9
20260831004105 81 182 4.3 8.7 0.00 0.00 0.00 81 1009.0
20260831003954 81 194 3.5 8.7 0.00 0.00 0.00 81 1009.0
20260831003859 81 190 5.2 8.7 0.00 0.00 0.00 80 1009.0
20260831003804 81 183 5.2 8.7 0.00 0.00 0.00 80 1009.1
20260831003709 81 190 6.1 8.7 0.00 0.00 0.00 80 1009.1
20260831003613 82 203 6.1 8.7 0.00 0.00 0.00 80 1009.1
20260831003517 82 190 6.1 8.7 0.00 0.00 0.00 80 1009.1
20260831003405 82 188 5.2 8.7 0.00 0.00 0.00 80 1009.1
20260831003310 82 197 6.1 8.7 0.00 0.00 0.00 80 1009.1
20260831003215 82 207 7.0 8.7 0.00 0.00 0.00 80 1009.2
20260831003059 82 187 7.0 11.3 0.00 0.00 0.00 80 1009.1
20260831003023 82 202 6.1 11.3 0.00 0.00 0.00 80 1009.1
20260831002927 82 196 5.2 11.3 0.00 0.00 0.00 80 1009.1
20260831002811 82 206 4.3 11.3 0.00 0.00 0.00 80 1009.1
20260831002700 82 191 5.2 11.3 0.00 0.00 0.00 80 1009.0
20260831002605 82 199 6.1 11.3 0.00 0.00 0.00 79 1009.1
20260831002510 82 197 7.0 11.3 0.00 0.00 0.00 79 1009.1
20260831002355 82 203 7.8 11.3 0.00 0.00 0.00 79 1008.9
20260831002259 82 197 7.8 11.3 0.00 0.00 0.00 79 1008.9
20260831002224 82 207 7.0 10.4 0.00 0.00 0.00 79 1008.9
20260831002112 82 202 7.0 12.2 0.00 0.00 0.00 79 1008.9
20260831002018 82 197 7.0 12.2 0.00 0.00 0.00 79 1008.9
20260831001855 82 197 7.0 12.2 0.00 0.00 0.00 79 1008.9
20260831001800 82 207 7.0 13.0 0.00 0.00 0.00 79 1009.0
20260831001705 82 190 5.2 12.2 0.00 0.00 0.00 79 1009.0
20260831001630 82 194 4.3 12.2 0.00 0.00 0.00 79 1009.0
20260831001458 83 205 5.2 12.2 0.00 0.00 0.00 78 1008.9
20260831001403 83 219 6.1 12.2 0.00 0.00 0.00 78 1009.0
20260831001328 83 220 6.1 12.2 0.00 0.00 0.00 78 1009.0
20260831001212 83 215 6.1 12.2 0.00 0.00 0.00 78 1008.8
20260831001057 83 198 7.8 12.2 0.00 0.00 0.00 78 1008.8
20260831001002 83 223 7.8 12.2 0.00 0.00 0.00 78 1008.9
20260831000907 83 196 7.0 11.3 0.00 0.00 0.00 78 1008.9
20260831000756 83 202 7.0 11.3 0.00 0.00 0.00 78 1008.9
20260831000700 83 197 7.0 11.3 0.00 0.00 0.00 78 1008.9
20260831000605 83 210 7.0 11.3 0.00 0.00 0.00 78 1008.8
20260831000510 83 186 7.0 11.3 0.00 0.00 0.00 78 1008.8
20260831000355 83 219 7.8 10.4 0.00 0.00 0.00 78 1008.8
20260831000300 83 204 7.0 10.4 0.00 0.00 0.00 78 1008.8
20260831000211 83 201 7.0 10.4 0.00 0.00 0.00 78 1008.8
20260831000133 83 177 6.1 10.4 0.00 0.00 0.00 78 1008.8
20260831000037 83 192 6.1 10.4 0.00 0.00 0.00 78 1008.7
20260830235854 83 204 6.1 10.4 0.00 0.00 0.00 78 1008.8
20260830235704 83 138 5.2 10.4 0.00 0.00 0.00 78 1008.8
20260830235609 83 184 5.2 7.8 0.00 0.00 0.00 78 1008.8
20260830235518 83 186 6.1 7.8 0.00 0.00 0.00 78 1008.8
20260830235356 83 182 6.1 7.8 0.00 0.00 0.00 78 1008.8
20260830235321 83 188 5.2 7.8 0.00 0.00 0.00 78 1008.8
20260830235205 83 204 5.2 6.1 0.00 0.00 0.00 78 1008.9
20260830235110 83 182 4.3 6.1 0.00 0.00 0.00 78 1008.9
20260830235034 84 185 4.3 7.0 0.00 0.00 0.00 78 1008.9
20260830234902 84 178 4.3 7.0 0.00 0.00 0.00 78 1009.0
20260830234807 84 182 4.3 8.7 0.00 0.00 0.00 77 1009.0
20260830234712 84 187 3.5 8.7 0.00 0.00 0.00 77 1009.0
20260830234557 84 163 3.5 8.7 0.00 0.00 0.00 77 1008.9
20260830234502 84 173 5.2 8.7 0.00 0.00 0.00 77 1009.0
20260830234406 84 171 5.2 9.6 0.00 0.00 0.00 77 1009.0
20260830234315 84 188 5.2 9.6 0.00 0.00 0.00 77 1008.9
20260830234219 84 198 5.2 9.6 0.00 0.00 0.00 77 1009.0
20260830234123 84 190 6.1 9.6 0.00 0.00 0.00 77 1009.1
20260830234007 84 189 6.1 9.6 0.00 0.00 0.00 77 1009.1
20260830233911 84 196 6.1 9.6 0.00 0.00 0.00 77 1009.0
20260830233816 84 192 5.2 9.6 0.00 0.00 0.00 77 1009.1
20260830233721 84 194 6.1 9.6 0.00 0.00 0.00 77 1009.1
20260830233558 83 233 6.1 9.6 0.00 0.00 0.00 77 1009.1
20260830233507 83 208 5.2 9.6 0.00 0.00 0.00 77 1009.1
20260830233412 83 202 4.3 8.7 0.00 0.00 0.00 77 1009.0
20260830233317 83 197 5.2 8.7 0.00 0.00 0.00 77 1009.0
20260830233201 83 208 6.1 8.7 0.00 0.00 0.00 77 1008.9
20260830233126 83 196 6.1 8.7 0.00 0.00 0.00 78 1008.9
20260830233010 83 231 7.0 8.7 0.00 0.00 0.00 77 1008.9
20260830232858 83 161 7.0 8.7 0.00 0.00 0.00 77 1008.9
20260830232803 83 198 7.0 8.7 0.00 0.00 0.00 77 1008.9
20260830232708 83 179 7.0 9.6 0.00 0.00 0.00 77 1008.9
20260830232613 83 191 6.1 10.4 0.00 0.00 0.00 78 1008.9
20260830232518 83 196 6.1 10.4 0.00 0.00 0.00 77 1008.9
20260830232356 83 193 6.1 10.4 0.00 0.00 0.00 77 1008.9
20260830232306 83 202 7.0 10.4 0.00 0.00 0.00 77 1008.9
20260830232210 83 176 7.0 10.4 0.00 0.00 0.00 77 1008.9
20260830232055 83 206 5.2 10.4 0.00 0.00 0.00 77 1008.9
20260830232020 83 172 6.1 10.4 0.00 0.00 0.00 77 1008.8
20260830231904 83 186 7.0 10.4 0.00 0.00 0.00 77 1008.9
20260830231808 83 180 7.0 10.4 0.00 0.00 0.00 77 1008.9
20260830231657 84 191 5.2 8.7 0.00 0.00 0.00 78 1008.9
20260830231602 83 173 5.2 7.0 0.00 0.00 0.00 78 1009.0
20260830231507 83 190 5.2 7.0 0.00 0.00 0.00 78 1009.0
20260830231411 83 190 4.3 7.0 0.00 0.00 0.00 77 1009.1
20260830231316 83 194 4.3 8.7 0.00 0.00 0.00 78 1009.1
20260830231154 83 186 4.3 8.7 0.00 0.00 0.00 77 1009.2
20260830231103 83 209 4.3 8.7 0.00 0.00 0.00 78 1009.2
20260830231028 83 199 4.3 8.7 0.00 0.00 0.00 77 1009.2
20260830230912 83 194 4.3 8.7 0.00 0.00 0.00 77 1009.3
20260830230818 84 193 4.3 8.7 0.00 0.00 0.00 77 1009.2
20260830230656 84 188 4.3 8.7 0.00 0.00 0.00 77 1009.2
20260830230601 84 186 5.2 8.7 0.00 0.00 0.00 76 1009.2
20260830230521 84 193 6.1 9.6 0.00 0.00 0.00 76 1009.1
20260830230409 84 199 6.1 9.6 0.00 0.00 0.00 76 1009.1
20260830230254 84 187 5.2 12.2 0.00 0.00 0.00 76 1009.1
20260830230158 84 184 5.2 12.2 0.00 0.00 0.00 76 1009.1
20260830230007 84 198 5.2 12.2 0.00 0.00 0.00 75 1009.0
20260830225912 84 180 4.3 12.2 0.00 0.00 0.00 76 1008.9
20260830225821 84 180 5.2 12.2 0.00 0.00 0.00 76 1008.9
20260830225704 84 187 6.1 12.2 0.00 0.00 0.00 75 1009.0
20260830225609 84 186 7.0 12.2 0.00 0.00 0.00 76 1009.0
20260830225454 84 205 7.0 12.2 0.00 0.00 0.00 75 1008.9
20260830225359 84 188 6.1 10.4 0.00 0.00 0.00 76 1009.0
20260830225305 84 204 5.2 10.4 0.00 0.00 0.00 75 1008.9
20260830225212 84 198 5.2 10.4 0.00 0.00 0.00 76 1008.9
20260830225056 84 186 7.0 10.4 0.00 0.00 0.00 76 1008.9
20260830225021 84 191 7.8 11.3 0.00 0.00 0.00 76 1009.0
20260830224905 84 184 7.8 11.3 0.00 0.00 0.00 76 1009.0
20260830224810 84 189 7.8 11.3 0.00 0.00 0.00 76 1009.0
20260830224715 84 200 7.0 11.3 0.00 0.00 0.00 75 1008.9
20260830224558 84 196 6.1 11.3 0.00 0.00 0.00 75 1008.9
20260830224523 84 194 7.0 11.3 0.00 0.00 0.00 75 1008.9
20260830224411 84 179 7.0 11.3 0.00 0.00 0.00 75 1008.9
20260830224316 84 189 7.0 11.3 0.00 0.00 0.00 75 1009.1
20260830224241 84 198 6.1 11.3 0.00 0.00 0.00 75 1009.1
20260830224058 84 143 7.0 11.3 0.00 0.00 0.00 75 1008.9
20260830224023 84 196 7.0 11.3 0.00 0.00 0.00 74 1009.0
20260830223907 85 194 7.0 11.3 0.00 0.00 0.00 75 1009.0
20260830223832 85 198 7.0 11.3 0.00 0.00 0.00 75 1008.9
20260830223659 85 208 8.7 11.3 0.00 0.00 0.00 75 1008.9
20260830223603 85 192 7.8 11.3 0.00 0.00 0.00 75 1008.9
20260830223508 85 190 7.0 11.3 0.00 0.00 0.00 75 1008.9
20260830223433 85 190 5.2 10.4 0.00 0.00 0.00 76 1008.9
20260830223316 85 200 5.2 10.4 0.00 0.00 0.00 76 1008.9
20260830223154 84 171 7.0 10.4 0.00 0.00 0.00 75 1009.0
20260830223103 85 198 7.0 10.4 0.00 0.00 0.00 75 1008.9
20260830223008 85 171 6.1 10.4 0.00 0.00 0.00 75 1008.9
20260830222912 85 188 5.2 11.3 0.00 0.00 0.00 76 1009.0
20260830222757 84 151 5.2 11.3 0.00 0.00 0.00 76 1008.9
20260830222702 84 198 5.2 11.3 0.00 0.00 0.00 76 1008.9
20260830222626 84 177 6.1 11.3 0.00 0.00 0.00 76 1008.9
20260830222510 84 191 7.0 11.3 0.00 0.00 0.00 76 1008.9
20260830222439 84 166 7.0 11.3 0.00 0.00 0.00 76 1008.9
20260830222256 84 222 8.7 11.3 0.00 0.00 0.00 76 1008.8
20260830222201 84 186 8.7 11.3 0.00 0.00 0.00 76 1008.9
20260830222106 84 184 7.0 11.3 0.00 0.00 0.00 75 1008.9
20260830222010 84 193 5.2 10.4 0.00 0.00 0.00 76 1008.9
20260830221855 84 184 5.2 10.4 0.00 0.00 0.00 77 1008.9
20260830221803 84 180 7.0 10.4 0.00 0.00 0.00 76 1008.9
20260830221707 84 184 7.0 11.3 0.00 0.00 0.00 77 1008.9
20260830221612 84 189 6.1 9.6 0.00 0.00 0.00 77 1009.0
20260830221457 84 180 7.0 9.6 0.00 0.00 0.00 77 1009.0
20260830221402 83 186 6.1 9.6 0.00 0.00 0.00 77 1009.0
20260830221307 83 194 6.1 9.6 0.00 0.00 0.00 78 1009.0
20260830221216 83 165 6.1 9.6 0.00 0.00 0.00 78 1009.1
20260830221141 83 169 7.0 9.6 0.00 0.00 0.00 77 1009.1
20260830220958 83 216 6.1 9.6 0.00 0.00 0.00 77 1009.1
20260830220923 83 193 6.1 9.6 0.00 0.00 0.00 77 1009.1
20260830220807 83 180 7.0 9.6 0.00 0.00 0.00 78 1009.1
20260830220712 83 193 7.0 10.4 0.00 0.00 0.00 77 1009.1
20260830220600 83 196 6.1 10.4 0.00 0.00 0.00 77 1009.2
20260830220505 83 217 6.1 10.4 0.00 0.00 0.00 77 1009.1
20260830220410 83 194 6.1 10.4 0.00 0.00 0.00 77 1009.1
20260830220255 83 168 7.0 10.4 0.00 0.00 0.00 76 1009.2
20260830220200 83 182 7.0 10.4 0.00 0.00 0.00 77 1009.1
20260830220105 83 198 7.8 10.4 0.00 0.00 0.00 76 1009.2
20260830215954 83 188 7.8 10.4 0.00 0.00 0.00 76 1009.2
20260830215858 83 191 7.0 10.4 0.00 0.00 0.00 76 1009.2
20260830215803 83 182 7.0 10.4 0.00 0.00 0.00 76 1009.2
20260830215707 83 194 6.1 10.4 0.00 0.00 0.00 76 1009.2
20260830215632 83 211 5.2 10.4 0.00 0.00 0.00 76 1009.2
20260830215515 83 169 6.1 11.3 0.00 0.00 0.00 76 1009.3
20260830215359 83 202 7.0 11.3 0.00 0.00 0.00 76 1009.3
20260830215307 83 205 7.0 11.3 0.00 0.00 0.00 76 1009.3
20260830215232 83 192 7.8 11.3 0.00 0.00 0.00 77 1009.3
20260830215116 83 192 7.8 11.3 0.00 0.00 0.00 76 1009.3
20260830214954 83 188 8.7 11.3 0.00 0.00 0.00 77 1009.3
20260830214919 83 194 7.8 11.3 0.00 0.00 0.00 77 1009.2
20260830214803 83 194 7.8 11.3 0.00 0.00 0.00 76 1009.3
20260830214708 83 189 7.8 11.3 0.00 0.00 0.00 77 1009.3
20260830214557 83 200 7.8 11.3 0.00 0.00 0.00 76 1009.4
20260830214502 83 203 7.0 11.3 0.00 0.00 0.00 76 1009.4
20260830214406 83 180 7.8 11.3 0.00 0.00 0.00 76 1009.4
20260830214331 83 202 7.8 11.3 0.00 0.00 0.00 76 1009.4
20260830214215 83 163 7.8 11.3 0.00 0.00 0.00 77 1009.4
20260830214120 83 192 7.8 11.3 0.00 0.00 0.00 76 1009.4
20260830213958 83 219 7.8 11.3 0.00 0.00 0.00 76 1009.5
20260830213923 83 189 6.1 10.4 0.00 0.00 0.00 76 1009.5
20260830213811 83 188 4.3 9.6 0.00 0.00 0.00 76 1009.5
20260830213737 83 205 4.3 9.6 0.00 0.00 0.00 76 1009.6
20260830213554 83 200 6.1 9.6 0.00 0.00 0.00 76 1009.5
20260830213519 83 189 7.8 9.6 0.00 0.00 0.00 76 1009.6
20260830213402 84 203 7.8 11.3 0.00 0.00 0.00 76 1009.6
20260830213326 84 194 7.8 11.3 0.00 0.00 0.00 76 1009.6
20260830213230 84 205 7.8 11.3 0.00 0.00 0.00 76 1009.6
20260830213057 84 209 7.0 12.2 0.00 0.00 0.00 76 1009.6
20260830213002 84 227 6.1 12.2 0.00 0.00 0.00 76 1009.6
20260830212927 83 196 6.1 12.2 0.00 0.00 0.00 76 1009.6
20260830212810 83 202 7.0 12.2 0.00 0.00 0.00 76 1009.6
20260830212716 83 167 7.8 12.2 0.00 0.00 0.00 76 1009.6
20260830212554 83 180 7.0 12.2 0.00 0.00 0.00 76 1009.6
20260830212458 83 205 7.0 12.2 0.00 0.00 0.00 77 1009.5
20260830212407 83 229 7.0 12.2 0.00 0.00 0.00 76 1009.5
20260830212312 83 191 7.0 12.2 0.00 0.00 0.00 77 1009.6
20260830212218 83 180 7.0 12.2 0.00 0.00 0.00 76 1009.6
20260830212056 83 238 7.8 12.2 0.00 0.00 0.00 76 1009.6
20260830212001 83 204 7.0 12.2 0.00 0.00 0.00 77 1009.7
20260830211906 83 215 6.1 11.3 0.00 0.00 0.00 77 1009.7
20260830211816 83 193 5.2 11.3 0.00 0.00 0.00 77 1009.7
20260830211654 83 218 5.2 11.3 0.00 0.00 0.00 77 1009.6
20260830211558 83 203 5.2 11.3 0.00 0.00 0.00 78 1009.7
20260830211504 83 229 7.0 12.2 0.00 0.00 0.00 77 1009.7
20260830211408 83 222 7.8 12.2 0.00 0.00 0.00 77 1009.7
20260830211257 83 216 7.0 12.2 0.00 0.00 0.00 76 1009.7
20260830211202 83 211 6.1 12.2 0.00 0.00 0.00 77 1009.7
20260830211107 83 213 7.0 12.2 0.00 0.00 0.00 77 1009.7
20260830211012 83 202 7.8 12.2 0.00 0.00 0.00 76 1009.7
20260830210857 83 222 9.6 12.2 0.00 0.00 0.00 75 1009.6
20260830210822 83 207 8.7 12.2 0.00 0.00 0.00 76 1009.7
20260830210705 83 198 7.8 12.2 0.00 0.00 0.00 77 1009.7
20260830210554 83 225 7.8 11.3 0.00 0.00 0.00 76 1009.6
20260830210459 83 209 8.7 11.3 0.00 0.00 0.00 76 1009.7
20260830210404 83 204 8.7 12.2 0.00 0.00 0.00 77 1009.7
20260830210308 83 190 8.7 12.2 0.00 0.00 0.00 77 1009.7
20260830210213 83 207 8.7 12.2 0.00 0.00 0.00 77 1009.6
20260830210118 83 172 7.0 12.2 0.00 0.00 0.00 77 1009.6
20260830210026 83 174 7.8 12.2 0.00 0.00 0.00 78 1009.7
20260830205909 83 196 8.7 12.2 0.00 0.00 0.00 77 1009.7
20260830205813 83 205 8.7 12.2 0.00 0.00 0.00 77 1009.6
20260830205718 82 202 8.7 14.8 0.00 0.00 0.00 78 1009.6
20260830205602 82 224 8.7 14.8 0.00 0.00 0.00 78 1009.7
20260830205507 82 184 8.7 14.8 0.00 0.00 0.00 77 1009.7
20260830205412 82 208 9.6 14.8 0.00 0.00 0.00 77 1009.7
20260830205320 82 216 9.6 14.8 0.00 0.00 0.00 77 1009.8
20260830205203 82 213 9.6 14.8 0.00 0.00 0.00 77 1009.8
20260830205108 82 219 9.6 14.8 0.00 0.00 0.00 77 1009.8
20260830205033 82 236 10.4 14.8 0.00 0.00 0.00 77 1009.7
20260830204857 82 239 8.7 13.9 0.00 0.00 0.00 79 1009.7
20260830204801 82 242 7.0 11.3 0.00 0.00 0.00 79 1009.8
20260830204726 82 218 6.1 9.6 0.00 0.00 0.00 79 1009.7
20260830204554 82 207 7.0 9.6 0.00 0.00 0.00 79 1009.8
20260830204519 82 187 7.0 10.4 0.00 0.00 0.00 80 1009.8
20260830204403 82 186 6.1 10.4 0.00 0.00 0.00 79 1009.8
20260830204308 82 175 5.2 10.4 0.00 0.00 0.00 80 1009.8
20260830204212 82 184 5.2 10.4 0.00 0.00 0.00 79 1009.9
20260830204057 82 150 5.2 10.4 0.00 0.00 0.00 80 1009.8
20260830204006 81 215 6.1 10.4 0.00 0.00 0.00 79 1009.9
20260830203911 81 209 7.0 13.0 0.00 0.00 0.00 80 1009.9
20260830203816 81 194 7.0 13.0 0.00 0.00 0.00 80 1009.9
20260830203654 81 190 7.0 13.0 0.00 0.00 0.00 80 1009.9
20260830203559 81 209 6.1 13.0 0.00 0.00 0.00 79 1009.9
20260830203504 81 192 6.1 13.0 0.00 0.00 0.00 80 1009.9
20260830203413 81 194 7.0 13.0 0.00 0.00 0.00 80 1009.9
20260830203318 81 163 7.0 13.0 0.00 0.00 0.00 79 1009.9
20260830203156 81 181 7.0 12.2 0.00 0.00 0.00 79 1010.0
20260830203101 81 216 7.0 12.2 0.00 0.00 0.00 79 1009.9
20260830203005 81 159 7.0 10.4 0.00 0.00 0.00 79 1009.9
20260830202910 81 169 7.0 12.2 0.00 0.00 0.00 80 1009.9
20260830202759 81 139 7.0 12.2 0.00 0.00 0.00 79 1009.8
20260830202703 81 195 7.8 12.2 0.00 0.00 0.00 80 1009.8
20260830202608 81 200 7.8 12.2 0.00 0.00 0.00 80 1009.8
20260830202533 81 191 7.0 12.2 0.00 0.00 0.00 80 1009.8
20260830202356 81 211 7.0 12.2 0.00 0.00 0.00 80 1009.8
20260830202301 81 173 7.8 12.2 0.00 0.00 0.00 80 1009.7
20260830202226 81 152 6.1 12.2 0.00 0.00 0.00 80 1009.7
20260830202054 81 171 4.3 8.7 0.00 0.00 0.00 82 1009.7
20260830202018 81 180 5.2 8.7 0.00 0.00 0.00 82 1009.7
20260830201856 81 173 6.1 9.6 0.00 0.00 0.00 81 1009.8
20260830201801 81 207 6.1 9.6 0.00 0.00 0.00 81 1009.7
20260830201706 81 184 6.1 9.6 0.00 0.00 0.00 80 1009.6
20260830201555 81 198 5.2 9.6 0.00 0.00 0.00 81 1009.6
20260830201500 81 164 5.2 9.6 0.00 0.00 0.00 81 1009.7
20260830201405 81 171 5.2 9.6 0.00 0.00 0.00 81 1009.6
20260830201310 81 162 6.1 9.6 0.00 0.00 0.00 80 1009.6
20260830201215 81 189 7.0 9.6 0.00 0.00 0.00 80 1009.8
20260830201059 81 211 7.0 8.7 0.00 0.00 0.00 80 1009.7
20260830201024 81 194 6.1 10.4 0.00 0.00 0.00 80 1009.6
20260830200912 81 170 6.1 10.4 0.00 0.00 0.00 80 1009.6
20260830200816 81 186 7.0 10.4 0.00 0.00 0.00 80 1009.5
20260830200654 81 163 6.1 13.0 0.00 0.00 0.00 80 1009.6
20260830200558 81 171 5.2 13.0 0.00 0.00 0.00 81 1009.6
20260830200503 81 114 6.1 13.0 0.00 0.00 0.00 81 1009.7
20260830200428 81 155 7.0 13.0 0.00 0.00 0.00 80 1009.7
20260830200332 81 190 7.0 13.0 0.00 0.00 0.00 81 1009.7
20260830200200 80 184 7.0 13.0 0.00 0.00 0.00 81 1009.7
20260830200105 80 145 6.1 13.0 0.00 0.00 0.00 80 1009.7
20260830200009 80 153 7.8 13.0 0.00 0.00 0.00 80 1009.7
20260830195934 80 157 9.6 13.0 0.00 0.00 0.00 80 1009.7
20260830195818 81 193 9.6 13.0 0.00 0.00 0.00 80 1009.8
20260830195656 81 211 7.0 13.0 0.00 0.00 0.00 80 1009.7
20260830195605 81 201 7.0 12.2 0.00 0.00 0.00 81 1009.6
20260830195510 81 154 6.1 12.2 0.00 0.00 0.00 81 1009.6
20260830195355 80 173 6.1 13.9 0.00 0.00 0.00 81 1009.6
20260830195259 80 148 6.1 13.9 0.00 0.00 0.00 81 1009.6
20260830195203 80 120 6.1 13.9 0.00 0.00 0.00 81 1009.5
20260830195128 80 161 7.0 13.9 0.00 0.00 0.00 80 1009.5
20260830195032 80 196 7.8 13.9 0.00 0.00 0.00 80 1009.6
20260830194900 80 148 8.7 13.9 0.00 0.00 0.00 80 1009.5
20260830194805 80 150 7.8 13.9 0.00 0.00 0.00 80 1009.6
20260830194729 80 171 7.0 13.9 0.00 0.00 0.00 81 1009.6
20260830194633 80 190 7.8 13.9 0.00 0.00 0.00 81 1009.7
20260830194537 80 167 7.0 13.0 0.00 0.00 0.00 81 1009.7
20260830194354 80 191 7.8 13.0 0.00 0.00 0.00 81 1009.7
20260830194259 80 181 7.8 13.0 0.00 0.00 0.00 81 1009.8
20260830194203 80 179 7.8 13.0 0.00 0.00 0.00 81 1009.8
20260830194128 80 145 7.8 13.0 0.00 0.00 0.00 81 1009.8
20260830194012 80 198 7.8 13.0 0.00 0.00 0.00 81 1009.8
20260830193857 80 204 7.8 14.8 0.00 0.00 0.00 81 1009.9
20260830193759 80 138 7.0 14.8 0.00 0.00 0.00 82 1010.0
20260830193703 80 167 7.0 14.8 0.00 0.00 0.00 82 1009.9
20260830193628 80 168 7.8 14.8 0.00 0.00 0.00 82 1009.9
20260830193456 80 172 7.8 14.8 0.00 0.00 0.00 81 1010.0
20260830193420 80 191 8.7 14.8 0.00 0.00 0.00 82 1010.1
20260830193324 80 155 8.7 14.8 0.00 0.00 0.00 82 1010.1
20260830193207 80 142 8.7 14.8 0.00 0.00 0.00 83 1010.1
20260830193112 79 150 7.8 14.8 0.00 0.00 0.00 82 1010.1
20260830193017 79 140 7.0 13.9 0.00 0.00 0.00 82 1010.1
20260830192900 79 163 7.0 13.9 0.00 0.00 0.00 83 1010.2
20260830192824 79 157 7.0 13.9 0.00 0.00 0.00 82 1010.2
20260830192712 79 165 7.0 13.9 0.00 0.00 0.00 82 1010.2
20260830192556 79 142 6.1 13.9 0.00 0.00 0.00 83 1010.2
20260830192500 79 169 4.3 11.3 0.00 0.00 0.00 83 1010.2
20260830192405 79 161 6.1 11.3 0.00 0.00 0.00 82 1010.2
20260830192310 79 140 7.0 11.3 0.00 0.00 0.00 82 1010.2
20260830192159 79 150 7.8 11.3 0.00 0.00 0.00 82 1010.3
20260830192103 79 134 7.0 11.3 0.00 0.00 0.00 82 1010.4
20260830192028 79 151 6.1 11.3 0.00 0.00 0.00 82 1010.4
20260830191913 79 155 6.1 9.6 0.00 0.00 0.00 82 1010.4
20260830191818 79 206 7.0 9.6 0.00 0.00 0.00 82 1010.4
20260830191655 79 175 7.8 9.6 0.00 0.00 0.00 82 1010.5
20260830191600 79 199 7.0 10.4 0.00 0.00 0.00 82 1010.6
20260830191508 79 173 6.1 10.4 0.00 0.00 0.00 83 1010.6
20260830191354 79 185 5.2 10.4 0.00 0.00 0.00 82 1010.7
20260830191259 79 154 5.2 9.6 0.00 0.00 0.00 83 1010.7
20260830191204 79 176 3.5 9.6 0.00 0.00 0.00 83 1010.7
20260830191129 79 154 4.3 9.6 0.00 0.00 0.00 83 1010.7
20260830191013 79 150 5.2 9.6 0.00 0.00 0.00 82 1010.8
20260830190901 79 165 7.0 9.6 0.00 0.00 0.00 82 1010.8
20260830190806 79 148 7.0 10.4 0.00 0.00 0.00 82 1010.8
20260830190732 79 166 6.1 11.3 0.00 0.00 0.00 83 1010.8
20260830190615 78 196 6.1 9.6 0.00 0.00 0.00 83 1010.7
20260830190459 78 194 6.1 9.6 0.00 0.00 0.00 82 1010.7
20260830190404 78 195 6.1 9.6 0.00 0.00 0.00 82 1010.8
20260830190328 78 165 7.0 9.6 0.00 0.00 0.00 82 1010.8
20260830190156 78 163 6.1 9.6 0.00 0.00 0.00 83 1010.7
20260830190100 78 171 5.2 9.6 0.00 0.00 0.00 83 1010.8
20260830190005 78 146 4.3 9.6 0.00 0.00 0.00 83 1010.7
20260830185909 78 159 4.3 9.6 0.00 0.00 0.00 83 1010.7
20260830185754 78 171 4.3 9.6 0.00 0.00 0.00 83 1010.8
20260830185720 78 171 6.1 9.6 0.00 0.00 0.00 82 1010.8
20260830185607 78 169 6.1 9.6 0.00 0.00 0.00 82 1010.8
20260830185512 78 158 6.1 9.6 0.00 0.00 0.00 82 1010.9
20260830185357 78 176 5.2 9.6 0.00 0.00 0.00 82 1010.9
20260830185302 78 161 6.1 9.6 0.00 0.00 0.00 82 1010.8
20260830185206 78 157 6.1 9.6 0.00 0.00 0.00 83 1010.8
20260830185111 78 175 7.0 9.6 0.00 0.00 0.00 82 1010.9
20260830185001 78 195 7.8 11.3 0.00 0.00 0.00 82 1010.9
20260830184906 78 171 7.0 11.3 0.00 0.00 0.00 82 1010.8
20260830184810 79 163 7.8 11.3 0.00 0.00 0.00 82 1010.8
20260830184656 79 183 7.0 11.3 0.00 0.00 0.00 82 1010.7
20260830184601 79 136 6.1 11.3 0.00 0.00 0.00 83 1010.8
20260830184505 79 163 7.0 11.3 0.00 0.00 0.00 83 1010.7
20260830184413 79 136 7.0 13.9 0.00 0.00 0.00 82 1010.7
20260830184315 79 147 6.1 13.9 0.00 0.00 0.00 84 1010.6
20260830184159 78 153 5.2 13.9 0.00 0.00 0.00 84 1010.7
20260830184122 78 119 5.2 13.9 0.00 0.00 0.00 83 1010.6
20260830184025 78 173 5.2 13.9 0.00 0.00 0.00 83 1010.6
20260830183907 78 161 7.0 13.9 0.00 0.00 0.00 83 1010.6
20260830183811 78 149 7.0 13.9 0.00 0.00 0.00 83 1010.6
20260830183714 78 163 7.8 13.9 0.00 0.00 0.00 83 1010.6
20260830183601 78 192 6.1 13.9 0.00 0.00 0.00 83 1010.7
20260830183524 78 194 6.1 14.8 0.00 0.00 0.00 84 1010.6
20260830183408 78 168 6.1 11.3 0.00 0.00 0.00 83 1010.6
20260830183331 78 138 7.8 11.3 0.00 0.00 0.00 84 1010.7
20260830183215 78 148 7.8 10.4 0.00 0.00 0.00 84 1010.6
20260830183058 78 182 7.8 10.4 0.00 0.00 0.00 84 1010.6
20260830183002 77 194 7.8 10.4 0.00 0.00 0.00 84 1010.6
20260830182911 77 195 7.0 8.7 0.00 0.00 0.00 84 1010.6
20260830182756 77 164 6.1 8.7 0.00 0.00 0.00 84 1010.6
20260830182701 77 188 6.1 9.6 0.00 0.00 0.00 84 1010.6
20260830182625 77 190 5.2 7.0 0.00 0.00 0.00 84 1010.6
20260830182505 77 165 5.2 8.7 0.00 0.00 0.00 84 1010.6
20260830182409 77 184 5.2 8.7 0.00 0.00 0.00 84 1010.6
20260830182259 77 161 5.2 8.7 0.00 0.00 0.00 84 1010.7
20260830182203 77 161 5.2 10.4 0.00 0.00 0.00 84 1010.7
20260830182108 77 143 5.2 10.4 0.00 0.00 0.00 84 1010.7
20260830182033 77 167 5.2 10.4 0.00 0.00 0.00 84 1010.7
20260830181857 77 190 5.2 10.4 0.00 0.00 0.00 84 1010.7
20260830181801 77 142 5.2 10.4 0.00 0.00 0.00 84 1010.8
20260830181706 77 184 6.1 10.4 0.00 0.00 0.00 83 1010.9
20260830181555 77 182 7.0 10.4 0.00 0.00 0.00 84 1011.0
20260830181520 77 195 7.0 10.4 0.00 0.00 0.00 84 1011.0
20260830181357 77 192 6.1 13.0 0.00 0.00 0.00 84 1011.0
20260830181302 77 188 4.3 13.0 0.00 0.00 0.00 84 1011.1
20260830181206 77 166 5.2 13.0 0.00 0.00 0.00 84 1011.1
20260830181056 77 180 7.0 13.0 0.00 0.00 0.00 83 1011.1
20260830181001 77 193 7.0 13.0 0.00 0.00 0.00 83 1011.1
20260830180905 77 180 7.0 13.0 0.00 0.00 0.00 83 1011.1
20260830180829 77 182 7.0 13.0 0.00 0.00 0.00 83 1011.1
20260830180733 77 169 7.8 13.0 0.00 0.00 0.00 83 1011.2
20260830180557 78 159 7.0 12.2 0.00 0.00 0.00 83 1011.2
20260830180522 78 191 6.1 9.6 0.00 0.00 0.00 84 1011.2
20260830180425 78 198 7.0 9.6 0.00 0.00 0.00 84 1011.1
20260830180312 78 177 7.8 9.6 0.00 0.00 0.00 84 1011.1
20260830180158 78 202 6.1 8.7 0.00 0.00 0.00 84 1011.1
20260830180006 78 198 5.2 8.7 0.00 0.00 0.00 84 1011.1
20260830175911 77 171 6.1 8.7 0.00 0.00 0.00 84 1011.1
20260830175816 77 169 5.2 8.7 0.00 0.00 0.00 84 1011.0
20260830175704 77 174 5.2 8.7 0.00 0.00 0.00 84 1011.0
20260830175608 77 178 6.1 9.6 0.00 0.00 0.00 84 1011.0
20260830175454 77 190 6.1 11.3 0.00 0.00 0.00 84 1011.2
20260830175418 77 182 6.1 11.3 0.00 0.00 0.00 84 1011.2
20260830175305 77 207 6.1 11.3 0.00 0.00 0.00 84 1011.2
20260830175206 77 190 5.2 11.3 0.00 0.00 0.00 84 1011.2
20260830175056 77 184 4.3 11.3 0.00 0.00 0.00 85 1011.2
20260830175000 77 206 6.1 11.3 0.00 0.00 0.00 85 1011.3
20260830174925 77 188 7.8 11.3 0.00 0.00 0.00 85 1011.2
20260830174808 77 186 7.8 11.3 0.00 0.00 0.00 84 1011.2
20260830174654 77 150 7.0 11.3 0.00 0.00 0.00 84 1011.2
20260830174558 77 190 7.0 9.6 0.00 0.00 0.00 85 1011.2
20260830174503 77 194 6.1 8.7 0.00 0.00 0.00 85 1011.1
20260830174431 77 169 6.1 7.8 0.00 0.00 0.00 85 1011.1
20260830174254 77 169 6.1 10.4 0.00 0.00 0.00 85 1011.2
20260830174200 77 202 6.1 10.4 0.00 0.00 0.00 85 1011.1
20260830174105 77 195 5.2 10.4 0.00 0.00 0.00 85 1011.2
20260830174010 77 199 4.3 10.4 0.00 0.00 0.00 85 1011.2
20260830173854 77 169 5.2 10.4 0.00 0.00 0.00 85 1011.2
20260830173804 77 204 6.1 10.4 0.00 0.00 0.00 85 1011.1
20260830173709 77 215 6.1 10.4 0.00 0.00 0.00 85 1011.1
20260830173634 77 189 7.0 10.4 0.00 0.00 0.00 85 1011.2
20260830173457 77 173 7.0 10.4 0.00 0.00 0.00 85 1011.2
20260830173401 76 189 7.0 9.6 0.00 0.00 0.00 85 1011.1
20260830173305 77 180 5.2 9.6 0.00 0.00 0.00 85 1011.1
20260830173154 76 171 6.1 9.6 0.00 0.00 0.00 85 1011.2
20260830173058 77 170 7.0 9.6 0.00 0.00 0.00 85 1011.2
20260830173003 77 191 6.1 8.7 0.00 0.00 0.00 85 1011.2
20260830172907 77 202 6.1 8.7 0.00 0.00 0.00 85 1011.2
20260830172812 77 201 6.1 8.7 0.00 0.00 0.00 85 1011.2
20260830172658 76 202 7.0 8.7 0.00 0.00 0.00 85 1011.3
20260830172607 76 184 7.0 8.7 0.00 0.00 0.00 85 1011.3
20260830172511 76 188 6.1 8.7 0.00 0.00 0.00 85 1011.2
20260830172416 76 213 6.1 8.7 0.00 0.00 0.00 86 1011.2
20260830172300 76 213 5.2 8.7 0.00 0.00 0.00 86 1011.2
20260830172204 76 188 4.3 8.7 0.00 0.00 0.00 86 1011.1
20260830172129 76 231 4.3 8.7 0.00 0.00 0.00 85 1011.1
20260830171956 76 194 5.2 8.7 0.00 0.00 0.00 85 1011.1
20260830171901 76 174 5.2 8.7 0.00 0.00 0.00 85 1011.1
20260830171805 76 182 6.1 8.7 0.00 0.00 0.00 85 1011.1
20260830171709 76 190 6.1 8.7 0.00 0.00 0.00 85 1011.1
20260830171634 76 196 6.1 8.7 0.00 0.00 0.00 85 1011.1
20260830171518 76 202 6.1 8.7 0.00 0.00 0.00 85 1011.1
20260830171355 76 197 7.0 8.7 0.00 0.00 0.00 85 1011.0
20260830171325 76 211 7.0 8.7 0.00 0.00 0.00 85 1011.0
20260830171209 76 220 6.1 8.7 0.00 0.00 0.00 86 1011.0
20260830171113 76 205 6.1 8.7 0.00 0.00 0.00 85 1010.9
20260830170958 76 138 6.1 8.7 0.00 0.00 0.00 85 1011.0
20260830170901 76 161 6.1 8.7 0.00 0.00 0.00 86 1010.9
20260830170804 76 129 6.1 8.7 0.00 0.00 0.00 86 1010.9
20260830170713 76 176 5.2 8.7 0.00 0.00 0.00 86 1010.9
20260830170617 76 163 5.2 7.8 0.00 0.00 0.00 86 1010.9
20260830170454 76 180 6.1 7.8 0.00 0.00 0.00 85 1010.9
20260830170358 76 170 6.1 7.8 0.00 0.00 0.00 85 1011.0
20260830170324 76 171 5.2 8.7 0.00 0.00 0.00 86 1010.9
20260830170207 76 163 4.3 8.7 0.00 0.00 0.00 85 1010.9
20260830170056 76 167 3.5 8.7 0.00 0.00 0.00 86 1011.0
20260830170000 76 161 4.3 8.7 0.00 0.00 0.00 86 1011.0
20260830165905 76 177 5.2 8.7 0.00 0.00 0.00 86 1010.9
20260830165810 76 167 6.1 8.7 0.00 0.00 0.00 86 1010.9
20260830165654 76 155 6.1 8.7 0.00 0.00 0.00 85 1010.9
20260830165558 76 178 6.1 8.7 0.00 0.00 0.00 85 1010.9
20260830165507 76 161 6.1 8.7 0.00 0.00 0.00 86 1010.9
20260830165432 76 200 5.2 8.7 0.00 0.00 0.00 86 1011.0
20260830165316 76 191 4.3 8.7 0.00 0.00 0.00 86 1010.9
20260830165159 76 171 3.5 7.0 0.00 0.00 0.00 86 1010.9
20260830165123 76 150 3.5 7.0 0.00 0.00 0.00 86 1010.9
20260830165007 76 141 4.3 7.0 0.00 0.00 0.00 86 1010.9
20260830164913 76 126 4.3 7.0 0.00 0.00 0.00 86 1010.9
20260830164817 76 171 3.5 7.8 0.00 0.00 0.00 87 1010.9
20260830164725 75 156 3.5 7.0 0.00 0.00 0.00 87 1011.0
20260830164628 75 164 3.5 7.8 0.00 0.00 0.00 87 1011.0
20260830164512 75 159 4.3 8.7 0.00 0.00 0.00 87 1010.9
20260830164356 75 175 3.5 8.7 0.00 0.00 0.00 87 1010.9
20260830164301 75 169 3.5 8.7 0.00 0.00 0.00 87 1010.8
20260830164205 75 166 3.5 8.7 0.00 0.00 0.00 87 1010.8
20260830164054 75 157 2.6 8.7 0.00 0.00 0.00 88 1010.8
20260830163959 75 142 3.5 8.7 0.00 0.00 0.00 88 1010.8
20260830163903 75 148 5.2 8.7 0.00 0.00 0.00 87 1010.8
20260830163808 75 132 5.2 8.7 0.00 0.00 0.00 87 1010.8
20260830163653 75 154 5.2 7.8 0.00 0.00 0.00 87 1010.8
20260830163559 75 124 4.3 7.8 0.00 0.00 0.00 87 1010.8
20260830163507 75 155 3.5 7.8 0.00 0.00 0.00 87 1010.8
20260830163412 75 123 3.5 8.7 0.00 0.00 0.00 88 1010.8
20260830163337 75 132 3.5 8.7 0.00 0.00 0.00 87 1010.7
20260830163153 75 137 3.5 9.6 0.00 0.00 0.00 87 1010.8
20260830163058 75 162 4.3 9.6 0.00 0.00 0.00 87 1010.8
20260830163022 75 167 4.3 9.6 0.00 0.00 0.00 87 1010.8
20260830162907 75 140 3.5 9.6 0.00 0.00 0.00 87 1010.8
20260830162755 75 134 3.5 9.6 0.00 0.00 0.00 87 1010.7
20260830162719 75 128 5.2 9.6 0.00 0.00 0.00 87 1010.7
20260830162623 75 153 6.1 9.6 0.00 0.00 0.00 87 1010.6
20260830162505 75 153 6.1 9.6 0.00 0.00 0.00 87 1010.7
20260830162410 75 146 6.1 9.6 0.00 0.00 0.00 87 1010.7
20260830162315 75 175 4.3 8.7 0.00 0.00 0.00 87 1010.7
20260830162219 75 190 4.3 8.7 0.00 0.00 0.00 87 1010.7
20260830162102 75 155 4.3 8.7 0.00 0.00 0.00 87 1010.7
20260830162011 74 161 4.3 8.7 0.00 0.00 0.00 87 1010.7
20260830161938 75 171 5.2 9.6 0.00 0.00 0.00 87 1010.8
20260830161754 74 171 5.2 9.6 0.00 0.00 0.00 87 1010.7
20260830161700 74 173 4.3 9.6 0.00 0.00 0.00 87 1010.7
20260830161605 74 178 5.2 9.6 0.00 0.00 0.00 87 1010.7
20260830161509 74 192 6.1 9.6 0.00 0.00 0.00 87 1010.7
20260830161358 74 163 6.1 9.6 0.00 0.00 0.00 87 1010.7
20260830161303 74 146 7.0 9.6 0.00 0.00 0.00 87 1010.7
20260830161207 74 183 7.0 9.6 0.00 0.00 0.00 87 1010.7
20260830161112 74 153 7.0 9.6 0.00 0.00 0.00 87 1010.7
20260830160958 74 202 5.2 9.6 0.00 0.00 0.00 87 1010.7
20260830160902 74 182 5.2 9.6 0.00 0.00 0.00 87 1010.7
20260830160827 74 171 4.3 9.6 0.00 0.00 0.00 87 1010.7
20260830160717 74 173 5.2 9.6 0.00 0.00 0.00 87 1010.8
20260830160555 74 184 6.1 9.6 0.00 0.00 0.00 87 1010.7
20260830160459 74 146 7.0 9.6 0.00 0.00 0.00 87 1010.6
20260830160405 74 206 5.2 9.6 0.00 0.00 0.00 87 1010.7
20260830160309 74 147 6.1 9.6 0.00 0.00 0.00 87 1010.7
20260830160158 74 159 5.2 9.6 0.00 0.00 0.00 87 1010.7
20260830160104 74 180 4.3 10.4 0.00 0.00 0.00 87 1010.7
20260830160009 74 165 4.3 10.4 0.00 0.00 0.00 87 1010.7
20260830155913 74 167 4.3 10.4 0.00 0.00 0.00 87 1010.7
20260830155818 74 148 5.2 10.4 0.00 0.00 0.00 87 1010.8
20260830155655 74 175 6.1 10.4 0.00 0.00 0.00 87 1010.9
20260830155619 74 152 6.1 10.4 0.00 0.00 0.00 87 1010.9
20260830155506 74 161 7.0 10.4 0.00 0.00 0.00 87 1010.9
20260830155411 74 142 6.1 10.4 0.00 0.00 0.00 87 1010.9
20260830155317 74 153 4.3 9.6 0.00 0.00 0.00 87 1010.8
20260830155155 74 140 5.2 9.6 0.00 0.00 0.00 87 1010.9
20260830155059 74 145 6.1 9.6 0.00 0.00 0.00 87 1011.0
20260830155025 74 189 7.0 9.6 0.00 0.00 0.00 87 1010.9
20260830154913 74 184 6.1 9.6 0.00 0.00 0.00 87 1010.9
20260830154819 74 139 6.1 9.6 0.00 0.00 0.00 87 1010.9
20260830154656 74 192 5.2 9.6 0.00 0.00 0.00 87 1010.8
20260830154602 74 158 6.1 9.6 0.00 0.00 0.00 87 1010.8
20260830154507 75 127 6.1 9.6 0.00 0.00 0.00 87 1010.8
20260830154411 74 147 4.3 9.6 0.00 0.00 0.00 87 1010.7
20260830154319 75 167 3.5 9.6 0.00 0.00 0.00 87 1010.7
20260830154157 74 156 5.2 9.6 0.00 0.00 0.00 87 1010.6
20260830154102 74 171 5.2 9.6 0.00 0.00 0.00 88 1010.7
20260830154006 74 123 5.2 9.6 0.00 0.00 0.00 88 1010.7
20260830153911 74 148 5.2 9.6 0.00 0.00 0.00 88 1010.6
20260830153816 74 140 4.3 9.6 0.00 0.00 0.00 88 1010.7
20260830153704 74 159 4.3 9.6 0.00 0.00 0.00 88 1010.7
20260830153628 74 158 4.3 9.6 0.00 0.00 0.00 88 1010.7
20260830153512 74 163 4.3 9.6 0.00 0.00 0.00 88 1010.8
20260830153358 74 177 4.3 9.6 0.00 0.00 0.00 88 1010.8
20260830153302 74 163 5.2 9.6 0.00 0.00 0.00 88 1010.8
20260830153207 74 175 5.2 9.6 0.00 0.00 0.00 88 1010.8
20260830153133 74 183 5.2 9.6 0.00 0.00 0.00 88 1010.8
20260830153001 74 172 5.2 8.7 0.00 0.00 0.00 88 1010.8
20260830152906 74 159 5.2 8.7 0.00 0.00 0.00 87 1010.8
20260830152811 74 165 5.2 8.7 0.00 0.00 0.00 88 1010.8
20260830152655 74 188 4.3 8.7 0.00 0.00 0.00 88 1010.8
20260830152601 74 192 4.3 8.7 0.00 0.00 0.00 88 1010.8
20260830152506 74 189 5.2 8.7 0.00 0.00 0.00 88 1010.8
20260830152415 74 190 4.3 8.7 0.00 0.00 0.00 88 1010.6
20260830152258 74 176 4.3 8.7 0.00 0.00 0.00 88 1010.6
20260830152203 74 173 5.2 8.7 0.00 0.00 0.00 88 1010.5
20260830152107 74 215 5.2 8.7 0.00 0.00 0.00 88 1010.5
20260830152012 73 171 5.2 8.7 0.00 0.00 0.00 89 1010.4
20260830151856 73 166 5.2 8.7 0.00 0.00 0.00 89 1010.4
20260830151805 73 188 6.1 8.7 0.00 0.00 0.00 88 1010.5
20260830151709 73 138 6.1 8.7 0.00 0.00 0.00 88 1010.5
20260830151554 73 179 6.1 8.7 0.00 0.00 0.00 89 1010.4
20260830151459 73 191 7.0 9.6 0.00 0.00 0.00 89 1010.4
20260830151403 73 196 6.1 10.4 0.00 0.00 0.00 89 1010.3
20260830151308 73 193 4.3 10.4 0.00 0.00 0.00 89 1010.3
20260830151216 73 184 4.3 10.4 0.00 0.00 0.00 89 1010.2
20260830151119 73 161 5.2 10.4 0.00 0.00 0.00 89 1010.3
20260830150956 73 178 6.1 10.4 0.00 0.00 0.00 89 1010.2
20260830150921 73 180 6.1 10.4 0.00 0.00 0.00 89 1010.3
20260830150805 73 137 6.1 10.4 0.00 0.00 0.00 89 1010.2
20260830150710 73 152 7.0 10.4 0.00 0.00 0.00 88 1010.2
20260830150559 73 159 7.0 10.4 0.00 0.00 0.00 89 1010.4
20260830150503 73 169 6.1 8.7 0.00 0.00 0.00 89 1010.6
20260830150428 73 207 5.2 8.7 0.00 0.00 0.00 90 1010.6
20260830150312 73 196 5.2 7.0 0.00 0.00 0.00 90 1010.6
20260830150238 73 171 5.2 7.0 0.00 0.00 0.00 90 1010.6
20260830150055 72 175 5.2 7.0 0.00 0.01 0.00 90 1010.7
20260830145959 72 184 4.3 7.0 0.00 0.01 0.00 90 1010.7
20260830145909 72 198 4.3 7.8 0.00 0.01 0.00 91 1010.7
20260830145813 72 159 5.2 7.8 0.00 0.01 0.00 91 1010.8
20260830145658 72 154 4.3 7.8 0.00 0.01 0.00 91 1010.9
20260830145622 72 139 3.5 7.8 0.00 0.01 0.00 91 1010.8
20260830145507 72 146 3.5 7.8 0.00 0.01 0.00 91 1010.8
20260830145411 72 171 3.5 7.8 0.00 0.01 0.00 91 1010.9
20260830145301 72 168 4.3 7.8 0.00 0.01 0.00 90 1010.8
20260830145205 72 169 5.2 7.8 0.00 0.01 0.00 91 1010.9
20260830145129 72 162 5.2 7.8 0.00 0.01 0.00 91 1010.9
20260830145033 72 169 3.5 7.0 0.00 0.01 0.00 91 1010.9
20260830144858 71 166 3.5 7.0 0.00 0.01 0.00 91 1010.8
20260830144803 71 153 3.5 7.0 0.00 0.01 0.00 91 1010.8
20260830144708 71 159 3.5 7.0 0.00 0.01 0.00 91 1010.8
20260830144556 71 155 3.5 7.0 0.00 0.01 0.00 91 1010.8
20260830144501 71 153 4.3 7.0 0.00 0.01 0.00 91 1010.8
20260830144406 71 149 4.3 8.7 0.00 0.01 0.00 91 1010.8
20260830144311 71 159 3.5 8.7 0.00 0.01 0.00 92 1010.8
20260830144156 71 153 4.3 8.7 0.00 0.01 0.00 92 1010.8
20260830144101 71 147 5.2 8.7 0.00 0.01 0.00 93 1010.8
20260830144009 71 198 4.3 8.7 0.00 0.01 0.00 93 1010.8
20260830143853 71 178 3.5 8.7 0.00 0.01 0.00 93 1010.9
20260830143759 71 194 3.5 8.7 0.00 0.01 0.00 93 1010.8
20260830143704 71 187 4.3 8.7 0.00 0.01 0.00 93 1010.8
20260830143628 71 168 5.2 8.7 0.00 0.01 0.00 93 1010.8
20260830143512 70 169 5.2 7.8 0.00 0.01 0.00 93 1010.8
20260830143401 70 136 4.3 7.8 0.00 0.01 0.00 93 1010.7
20260830143306 70 168 4.3 7.8 0.00 0.01 0.00 94 1010.7
20260830143206 70 159 5.2 7.8 0.00 0.01 0.00 94 1010.7
20260830143130 70 153 5.2 7.8 0.00 0.01 0.00 94 1010.8
20260830142954 70 183 3.5 7.8 0.00 0.01 0.00 94 1010.8
20260830142858 70 171 3.5 7.8 0.00 0.01 0.00 94 1010.8
20260830142803 70 188 4.3 7.8 0.00 0.01 0.00 94 1010.8
20260830142727 70 186 6.1 7.8 0.00 0.01 0.00 94 1010.8
20260830142554 70 202 6.1 7.8 0.00 0.01 0.00 95 1010.7
20260830142459 69 193 5.2 7.0 0.00 0.01 0.00 94 1010.8
20260830142403 69 201 4.3 6.1 0.00 0.01 0.00 94 1010.7
20260830142308 69 184 3.5 6.1 0.00 0.01 0.00 94 1010.8
20260830142209 69 169 2.6 6.1 0.00 0.01 0.00 94 1010.8
20260830142057 69 169 3.5 6.1 0.00 0.01 0.00 94 1010.8
20260830142002 69 169 3.5 6.1 0.00 0.01 0.00 94 1010.8
20260830141907 69 163 3.5 6.1 0.00 0.01 0.00 94 1010.8
20260830141812 69 164 3.5 6.1 0.00 0.01 0.00 94 1010.8
20260830141717 69 170 3.5 6.1 0.00 0.01 0.00 94 1010.7
20260830141554 69 171 4.3 6.1 0.00 0.01 0.00 94 1010.7
20260830141504 69 198 4.3 6.1 0.00 0.01 0.00 94 1010.7
20260830141428 69 188 5.2 6.1 0.00 0.01 0.00 94 1010.7
20260830141332 69 184 4.3 6.1 0.00 0.01 0.00 95 1010.8
20260830141238 69 199 3.5 6.1 0.00 0.01 0.00 95 1010.8
20260830141055 69 194 2.6 7.0 0.00 0.01 0.00 95 1010.7
20260830141020 69 194 3.5 7.0 0.00 0.01 0.00 94 1010.7
20260830140904 69 194 3.5 7.0 0.00 0.01 0.00 94 1010.7
20260830140808 69 197 4.3 7.0 0.00 0.01 0.00 94 1010.7
20260830140717 69 141 4.3 7.0 0.00 0.01 0.00 95 1010.7
20260830140601 69 184 4.3 7.0 0.00 0.01 0.00 95 1010.7
20260830140506 69 168 4.3 7.0 0.00 0.01 0.00 95 1010.7
20260830140410 69 172 5.2 7.0 0.00 0.01 0.00 95 1010.6
20260830140317 69 192 4.3 7.0 0.00 0.01 0.00 95 1010.7
20260830140154 69 196 3.5 7.0 0.00 0.14 0.00 95 1010.6
20260830140119 68 168 3.5 7.0 0.00 0.14 0.00 95 1010.7
20260830140008 68 174 4.3 7.0 0.00 0.14 0.00 95 1010.7
20260830135912 68 163 4.3 7.0 0.00 0.14 0.00 95 1010.6
20260830135817 68 165 4.3 7.8 0.00 0.14 0.00 95 1010.6
20260830135654 68 158 4.3 7.0 0.00 0.14 0.00 95 1010.6
20260830135619 68 153 3.5 7.0 0.00 0.14 0.00 95 1010.7
20260830135503 68 161 3.5 7.0 0.00 0.14 0.00 95 1010.8
20260830135412 68 183 3.5 7.0 0.00 0.14 0.00 95 1010.8
20260830135338 68 167 3.5 7.0 0.00 0.14 0.00 95 1010.8
20260830135155 68 173 3.5 7.0 0.00 0.14 0.00 95 1010.8
20260830135059 68 192 4.3 7.0 0.00 0.14 0.00 95 1010.7
20260830135003 68 187 4.3 7.0 0.00 0.14 0.00 95 1010.6
20260830134908 68 144 4.3 7.0 0.00 0.14 0.00 95 1010.6
20260830134834 68 182 4.3 7.0 0.00 0.14 0.00 95 1010.6
20260830134701 68 166 3.5 7.8 0.00 0.14 0.00 95 1010.6
20260830134607 68 173 3.5 7.8 0.00 0.14 0.00 95 1010.6
20260830134531 68 175 2.6 7.8 0.00 0.14 0.00 95 1010.6
20260830134434 68 159 2.6 7.8 0.00 0.14 0.00 95 1010.6
20260830134318 68 158 2.6 7.8 0.00 0.14 0.00 95 1010.6
20260830134157 68 157 5.2 7.8 0.00 0.14 0.00 95 1010.6
20260830134102 68 155 5.2 7.8 0.00 0.14 0.00 96 1010.6
20260830134010 68 157 4.3 6.1 0.00 0.14 0.00 95 1010.6
20260830133916 68 169 4.3 6.1 0.00 0.14 0.00 95 1010.7
20260830133759 68 174 4.3 6.1 0.00 0.14 0.00 95 1010.7
20260830133703 68 159 4.3 6.1 0.00 0.14 0.00 95 1010.8
20260830133608 68 163 4.3 6.1 0.00 0.14 0.00 96 1010.8
20260830133453 68 157 3.5 6.1 0.00 0.14 0.00 96 1010.9
20260830133403 68 146 1.7 6.1 0.00 0.14 0.00 96 1010.9
20260830133307 68 132 1.7 6.1 0.00 0.14 0.00 96 1010.9
20260830133212 68 130 2.6 6.1 0.00 0.14 0.00 96 1010.9
20260830133118 68 130 3.5 6.1 0.00 0.14 0.00 96 1010.9
20260830132956 68 138 3.5 6.1 0.00 0.14 0.00 95 1011.1
20260830132901 68 159 3.5 6.1 0.00 0.14 0.00 95 1011.1
20260830132809 68 162 3.5 6.1 0.00 0.14 0.00 95 1011.1
20260830132714 67 159 2.6 5.2 0.00 0.14 0.00 95 1011.0
20260830132619 67 130 2.6 4.3 0.00 0.14 0.00 96 1011.0
20260830132457 67 139 2.6 4.3 0.00 0.14 0.00 96 1011.0
20260830132402 67 139 2.6 6.1 0.00 0.14 0.00 95 1011.0
20260830132306 67 138 2.6 6.1 0.00 0.14 0.00 95 1011.0
20260830132154 67 143 2.6 6.1 0.00 0.14 0.00 96 1011.0
20260830132058 67 143 2.6 6.1 0.00 0.14 0.00 96 1011.1
20260830132003 67 168 1.7 6.1 0.00 0.14 0.00 96 1011.1
20260830131928 67 130 1.7 6.1 0.00 0.14 0.00 96 1011.1
20260830131831 67 130 2.6 6.1 0.00 0.14 0.00 96 1011.0
20260830131655 67 105 2.6 6.1 0.00 0.14 0.00 96 1010.9
20260830131600 67 102 3.5 6.1 0.00 0.14 0.00 96 1010.8
20260830131509 67 156 4.3 6.1 0.00 0.14 0.00 96 1010.8
20260830131433 67 175 4.3 7.0 0.00 0.14 0.00 96 1010.8
20260830131319 67 158 3.5 6.1 0.00 0.14 0.00 96 1010.7
20260830131156 67 145 3.5 7.0 0.00 0.14 0.00 96 1010.6
20260830131101 67 139 3.5 7.0 0.00 0.14 0.00 96 1010.6
20260830131006 67 161 3.5 7.0 0.00 0.14 0.00 96 1010.6
20260830130854 67 159 4.3 7.0 0.00 0.14 0.00 96 1010.6
20260830130800 67 161 5.2 7.0 0.00 0.14 0.00 96 1010.5
20260830130725 67 157 4.3 7.0 0.00 0.14 0.00 96 1010.7
20260830130608 67 172 4.3 7.0 0.00 0.14 0.00 96 1010.7
20260830130454 67 165 3.5 7.0 0.00 0.14 0.00 96 1010.7
20260830130418 67 163 3.5 7.0 0.00 0.14 0.00 96 1010.8
20260830130301 67 165 3.5 7.0 0.00 0.14 0.00 96 1010.8
20260830130230 67 164 3.5 7.0 0.00 0.14 0.00 96 1010.8
20260830130134 67 175 3.5 4.3 0.00 0.23 0.00 96 1010.9
20260830125958 67 163 3.5 5.2 0.00 0.23 0.00 96 1010.9
20260830125902 67 162 2.6 5.2 0.00 0.23 0.00 96 1010.9
20260830125807 67 161 3.5 5.2 0.00 0.23 0.00 96 1010.9
20260830125710 67 162 3.5 5.2 0.00 0.23 0.00 96 1010.9
20260830125614 67 160 3.5 6.1 0.00 0.23 0.00 96 1011.0
20260830125503 67 159 2.6 6.1 0.00 0.23 0.00 96 1011.0
20260830125408 67 161 2.6 6.1 0.00 0.23 0.00 96 1011.0
20260830125312 67 158 1.7 6.1 0.00 0.23 0.00 96 1010.9
20260830125238 67 157 1.7 6.1 0.00 0.23 0.00 96 1010.9
20260830125055 67 157 1.7 6.1 0.00 0.23 0.00 96 1010.9
20260830125000 67 156 2.6 6.1 0.00 0.23 0.00 96 1010.9
20260830124905 67 156 3.5 6.1 0.00 0.23 0.00 96 1011.0
20260830124754 67 155 2.6 6.1 0.00 0.23 0.00 96 1011.0
20260830124658 67 171 1.7 5.2 0.00 0.23 0.00 96 1011.0
20260830124603 67 171 1.7 5.2 0.00 0.23 0.00 96 1011.0
20260830124508 67 171 2.6 5.2 0.00 0.23 0.00 96 1011.0
20260830124412 67 171 2.6 5.2 0.00 0.23 0.00 96 1011.0
20260830124317 67 153 1.7 4.3 0.00 0.23 0.00 96 1011.1
20260830124206 67 153 1.7 4.3 0.00 0.23 0.00 96 1011.1
20260830124110 67 152 1.7 4.3 0.00 0.23 0.00 96 1011.1
20260830123955 67 152 2.6 4.3 0.00 0.23 0.00 96 1011.1
20260830123901 67 152 2.6 4.3 0.00 0.23 0.00 96 1011.1
20260830123805 67 153 1.7 4.3 0.00 0.23 0.00 96 1011.1
20260830123655 67 153 1.7 6.1 0.00 0.23 0.00 96 1011.1
20260830123600 67 153 1.7 6.1 0.00 0.23 0.00 96 1011.1
20260830123504 67 153 1.7 6.1 0.00 0.23 0.00 96 1011.0
20260830123429 67 152 0.9 6.1 0.00 0.23 0.00 96 1011.0
20260830123254 67 152 0.9 6.1 0.00 0.23 0.00 96 1010.9
20260830123218 67 152 1.7 6.1 0.00 0.23 0.00 96 1010.9
20260830123101 67 152 2.6 6.1 0.00 0.23 0.00 96 1010.8
20260830123010 67 152 3.5 6.1 0.00 0.23 0.00 96 1010.8
20260830122916 67 165 4.3 6.1 0.00 0.23 0.00 96 1010.7
20260830122759 67 159 4.3 7.0 0.00 0.23 0.00 96 1010.7
20260830122724 67 161 3.5 7.0 0.00 0.23 0.00 96 1010.6
20260830122607 66 162 4.3 7.0 0.00 0.23 0.00 96 1010.6
20260830122511 66 161 4.3 7.0 0.00 0.23 0.00 96 1010.6
20260830122416 67 158 3.5 7.0 0.00 0.23 0.00 96 1010.7
20260830122300 66 164 3.5 7.0 0.00 0.23 0.00 96 1010.6
20260830122210 66 159 2.6 7.0 0.00 0.23 0.00 96 1010.6
20260830122056 66 159 3.5 7.0 0.00 0.23 0.00 96 1010.5
20260830122001 66 157 3.5 7.0 0.00 0.23 0.00 96 1010.6
20260830121906 66 158 3.5 6.1 0.00 0.23 0.00 96 1010.6
20260830121812 66 155 3.5 6.1 0.00 0.23 0.00 96 1010.5
20260830121702 66 166 3.5 5.2 0.00 0.23 0.00 96 1010.6
20260830121608 66 170 3.5 6.1 0.00 0.23 0.00 96 1010.6
20260830121454 66 153 3.5 6.1 0.00 0.23 0.00 96 1010.6
20260830121400 66 152 3.5 6.1 0.00 0.23 0.00 96 1010.6
20260830121305 66 158 2.6 5.2 0.00 0.23 0.00 96 1010.6
20260830121211 66 158 2.6 4.3 0.00 0.23 0.00 96 1010.6
20260830121122 66 157 1.7 4.3 0.00 0.23 0.00 96 1010.8
20260830121027 66 157 0.9 4.3 0.00 0.23 0.00 96 1010.8
20260830120931 66 157 0.9 2.6 0.00 0.23 0.00 96 1010.8
20260830120816 66 155 0.9 4.3 0.00 0.23 0.00 96 1010.7
20260830120653 66 155 0.9 4.3 0.00 0.23 0.00 96 1010.7
20260830120559 66 156 0.9 4.3 0.00 0.23 0.00 96 1010.7
20260830120505 66 156 0.9 4.3 0.00 0.23 0.00 96 1010.7
20260830120355 66 156 0.9 4.3 0.00 0.23 0.00 96 1010.7
20260830120300 66 156 0.9 4.3 0.00 0.23 0.00 96 1010.7
20260830120206 66 156 1.7 4.3 0.00 0.23 0.00 96 1010.5
20260830120111 66 156 1.7 4.3 0.00 0.27 0.00 96 1010.5
20260830120018 66 156 1.7 4.3 0.00 0.27 0.00 96 1010.5
20260830115903 66 156 2.6 4.3 0.00 0.27 0.00 96 1010.5
20260830115812 66 156 2.6 4.3 0.00 0.27 0.00 96 1010.5
20260830115657 66 147 1.7 4.3 0.00 0.27 0.00 96 1010.4
20260830115603 66 145 1.7 4.3 0.00 0.27 0.00 96 1010.4
20260830115528 66 145 0.9 4.3 0.00 0.27 0.00 96 1010.4
20260830115413 66 145 0.9 4.3 0.00 0.27 0.00 96 1010.4
20260830115258 66 145 1.7 4.3 0.00 0.27 0.00 96 1010.3
20260830115208 66 145 2.6 4.3 0.00 0.27 0.00 96 1010.3
20260830115055 66 172 2.6 5.2 0.00 0.27 0.00 96 1010.2
20260830115001 66 188 2.6 5.2 0.00 0.27 0.00 96 1010.2
20260830114926 66 157 2.6 5.2 0.00 0.27 0.00 96 1010.2
20260830114812 66 151 2.6 5.2 0.00 0.27 0.00 96 1010.1
20260830114657 66 150 2.6 5.2 0.00 0.27 0.00 96 1010.2
20260830114608 66 150 2.6 4.3 0.00 0.27 0.00 96 1010.2
20260830114533 66 147 2.6 4.3 0.00 0.27 0.00 96 1010.2
20260830114358 66 161 1.7 5.2 0.00 0.27 0.00 96 1010.3
20260830114304 66 178 1.7 2.6 0.00 0.27 0.00 96 1010.3
20260830114210 66 178 0.9 2.6 0.00 0.27 0.00 96 1010.3
20260830114055 66 178 1.7 2.6 0.00 0.27 0.00 96 1010.4
20260830114006 66 178 1.7 2.6 0.00 0.27 0.00 96 1010.4
20260830113911 66 178 0.9 2.6 0.00 0.27 0.00 96 1010.5
20260830113757 66 178 0.9 2.6 0.00 0.27 0.00 96 1010.5
20260830113703 66 178 1.7 2.6 0.00 0.27 0.00 96 1010.5
20260830113628 66 178 1.7 2.6 0.00 0.27 0.00 96 1010.5
20260830113453 66 179 1.7 2.6 0.00 0.27 0.00 96 1010.4
20260830113419 66 179 1.7 2.6 0.00 0.27 0.00 96 1010.4
20260830113309 66 179 1.7 2.6 0.00 0.27 0.00 96 1010.4
20260830113154 66 179 1.7 2.6 0.00 0.27 0.00 96 1010.4
20260830113100 66 179 1.7 2.6 0.00 0.27 0.00 96 1010.4
20260830113025 66 179 1.7 2.6 0.00 0.27 0.00 96 1010.5
20260830112910 66 180 1.7 2.6 0.00 0.27 0.00 96 1010.5
20260830112815 66 180 1.7 2.6 0.00 0.27 0.00 96 1010.5
20260830112720 66 180 1.7 2.6 0.00 0.27 0.00 96 1010.5
20260830112609 66 180 0.9 2.6 0.00 0.27 0.00 96 1010.5
20260830112454 66 180 1.7 2.6 0.00 0.27 0.00 96 1010.5
20260830112326 66 180 1.7 2.6 0.00 0.27 0.00 96 1010.4
20260830112232 66 180 0.9 2.6 0.00 0.27 0.00 96 1010.4
20260830112057 66 180 0.9 2.6 0.00 0.27 0.00 96 1010.5
20260830112007 66 180 0.9 2.6 0.00 0.27 0.00 96 1010.5
20260830111913 66 180 0.9 2.6 0.00 0.27 0.00 96 1010.5
20260830111758 66 180 1.7 2.6 0.00 0.27 0.00 96 1010.5
20260830111705 66 180 1.7 2.6 0.00 0.27 0.00 96 1010.5
20260830111610 66 180 1.7 2.6 0.00 0.27 0.00 96 1010.5
20260830111517 66 180 1.7 2.6 0.00 0.27 0.00 96 1010.6
20260830111405 66 180 1.7 2.6 0.00 0.27 0.00 96 1010.6
20260830111311 66 180 1.7 2.6 0.00 0.27 0.00 96 1010.5
20260830111157 66 180 0.9 2.6 0.00 0.27 0.00 96 1010.6
20260830111102 66 180 0.9 2.6 0.00 0.27 0.00 96 1010.5
20260830111008 66 180 0.9 2.6 0.00 0.27 0.00 96 1010.5
20260830110854 66 180 0.9 2.6 0.00 0.27 0.00 95 1010.5
20260830110805 66 180 0.9 2.6 0.00 0.27 0.00 96 1010.4
20260830110711 66 180 0.9 2.6 0.00 0.27 0.00 96 1010.4
20260830110557 66 180 0.9 2.6 0.00 0.27 0.00 95 1010.4
20260830110502 66 180 1.7 2.6 0.00 0.27 0.00 95 1010.4
20260830110408 66 180 1.7 2.6 0.00 0.27 0.00 95 1010.4
20260830110258 66 180 1.7 2.6 0.00 0.27 0.00 95 1010.4
20260830110203 66 180 1.7 2.6 0.00 0.30 0.00 95 1010.4
20260830110109 66 180 1.7 2.6 0.00 0.30 0.00 95 1010.4
20260830110016 66 180 0.9 2.6 0.00 0.30 0.00 95 1010.5
20260830105900 66 180 0.9 2.6 0.00 0.30 0.00 95 1010.5
20260830105806 66 180 0.9 2.6 0.00 0.30 0.00 95 1010.5
20260830105710 66 180 1.7 2.6 0.00 0.30 0.00 95 1010.5
20260830105559 66 180 1.7 2.6 0.00 0.30 0.00 95 1010.5
20260830105505 66 180 1.7 2.6 0.00 0.30 0.00 95 1010.5
20260830105411 66 180 1.7 3.5 0.00 0.30 0.00 95 1010.5
20260830105257 66 180 1.7 3.5 0.00 0.30 0.00 95 1010.6
20260830105202 66 180 1.7 3.5 0.00 0.30 0.00 95 1010.7
20260830105107 66 180 1.7 3.5 0.00 0.30 0.00 95 1010.7
20260830104957 66 180 1.7 3.5 0.00 0.30 0.00 95 1010.8
20260830104904 66 180 1.7 3.5 0.00 0.30 0.00 95 1010.8
20260830104810 66 180 1.7 3.5 0.00 0.30 0.00 95 1010.8
20260830104715 66 180 2.6 3.5 0.00 0.30 0.00 95 1010.8
20260830104600 66 180 2.6 3.5 0.00 0.30 0.00 95 1010.8
20260830104505 66 181 2.6 2.6 0.00 0.30 0.00 95 1010.8
20260830104356 66 182 2.6 2.6 0.00 0.30 0.00 95 1010.9
20260830104302 66 182 1.7 2.6 0.00 0.30 0.00 95 1010.9
20260830104207 66 182 1.7 2.6 0.00 0.30 0.00 95 1010.9
20260830104112 66 182 1.7 2.6 0.00 0.30 0.00 95 1010.9
20260830103957 66 182 1.7 2.6 0.00 0.30 0.00 95 1010.8
20260830103924 66 182 1.7 2.6 0.00 0.30 0.00 95 1010.9
20260830103812 66 182 2.6 2.6 0.00 0.30 0.00 95 1010.9
20260830103658 66 183 1.7 2.6 0.00 0.30 0.00 95 1010.8
20260830103605 67 183 1.7 2.6 0.00 0.30 0.00 95 1010.9
20260830103510 67 183 1.7 2.6 0.00 0.30 0.00 95 1010.9
20260830103357 67 183 1.7 1.7 0.00 0.30 0.00 95 1010.7
20260830103306 67 183 0.9 1.7 0.00 0.30 0.00 95 1010.7
20260830103212 67 183 0.9 1.7 0.00 0.30 0.00 95 1010.8
20260830103058 67 183 0.9 1.7 0.00 0.30 0.00 95 1010.6
20260830103004 67 183 0.9 1.7 0.00 0.30 0.00 95 1010.6
20260830102910 67 183 0.9 1.7 0.00 0.30 0.00 95 1010.6
20260830102705 67 183 0.9 3.5 0.00 0.30 0.00 95 1010.6
20260830102610 67 183 0.9 3.5 0.00 0.30 0.00 95 1010.6
20260830102457 67 183 0.9 3.5 0.00 0.30 0.00 95 1010.6
20260830102403 67 183 0.9 4.3 0.00 0.30 0.00 95 1010.6
20260830102308 67 183 0.9 4.3 0.00 0.30 0.00 95 1010.6
20260830102158 67 183 0.9 4.3 0.00 0.30 0.00 95 1010.5
20260830102124 67 183 1.7 4.3 0.00 0.30 0.00 95 1010.5
20260830102029 67 183 1.7 4.3 0.00 0.30 0.00 95 1010.5
20260830101853 67 183 1.7 4.3 0.00 0.30 0.00 95 1010.5
20260830101759 67 183 1.7 4.3 0.00 0.30 0.00 95 1010.4
20260830101705 67 183 2.6 4.3 0.00 0.30 0.00 95 1010.4
20260830101611 67 183 2.6 4.3 0.00 0.30 0.00 95 1010.5
20260830101522 67 183 1.7 4.3 0.00 0.30 0.00 95 1010.4
20260830101426 67 182 1.7 4.3 0.00 0.30 0.00 95 1010.4
20260830101312 67 182 1.7 4.3 0.00 0.30 0.00 95 1010.4
20260830101158 67 182 1.7 4.3 0.00 0.30 0.00 95 1010.3
20260830101124 67 183 0.9 4.3 0.00 0.30 0.00 95 1010.2
20260830101008 67 183 0.9 4.3 0.00 0.30 0.00 95 1010.2
20260830100853 67 183 1.7 4.3 0.00 0.30 0.00 95 1010.3
20260830100823 67 183 1.7 4.3 0.00 0.30 0.00 95 1010.3
20260830100709 67 183 1.7 4.3 0.00 0.30 0.00 95 1010.3
20260830100554 67 182 1.7 4.3 0.00 0.30 0.00 95 1010.3
20260830100500 67 182 2.6 4.3 0.00 0.30 0.00 95 1010.3
20260830100405 67 182 1.7 4.3 0.00 0.30 0.00 95 1010.3
20260830100311 67 182 1.7 4.3 0.00 0.30 0.00 95 1010.3
20260830100201 67 182 2.6 4.3 0.00 0.30 0.00 95 1010.3
20260830100107 67 182 3.5 4.3 0.00 0.30 0.00 95 1010.3
20260830095954 67 182 3.5 4.3 0.00 0.30 0.00 95 1010.2
20260830095919 67 181 3.5 4.3 0.00 0.30 0.00 95 1010.2
20260830095804 67 180 3.5 4.3 0.00 0.30 0.00 95 1010.2
20260830095710 67 178 3.5 4.3 0.00 0.30 0.00 95 1010.2
20260830095559 67 178 2.6 4.3 0.00 0.30 0.00 95 1010.1
20260830095505 67 174 2.6 4.3 0.00 0.30 0.00 95 1010.1
20260830095431 67 175 3.5 4.3 0.00 0.30 0.00 95 1010.1
20260830095256 67 173 3.5 5.2 0.00 0.30 0.00 95 1010.1
20260830095221 67 168 3.5 5.2 0.00 0.30 0.00 95 1010.1
20260830095126 67 167 3.5 5.2 0.00 0.30 0.00 95 1010.1
20260830095012 67 172 2.6 4.3 0.00 0.30 0.00 95 1010.0
20260830094901 67 171 2.6 4.3 0.00 0.30 0.00 95 1010.1
20260830094807 67 173 2.6 4.3 0.00 0.30 0.00 95 1010.1
20260830094713 67 173 2.6 4.3 0.00 0.30 0.00 95 1010.1
20260830094558 67 172 2.6 4.3 0.00 0.30 0.00 95 1010.2
20260830094504 67 172 2.6 4.3 0.00 0.30 0.00 95 1010.2
20260830094410 67 173 2.6 5.2 0.00 0.30 0.00 95 1010.2
20260830094316 67 173 3.5 5.2 0.00 0.30 0.00 95 1010.1
20260830094204 67 184 2.6 5.2 0.00 0.30 0.00 95 1010.2
20260830094129 67 184 1.7 5.2 0.00 0.30 0.00 95 1010.2
20260830093954 67 190 1.7 5.2 0.00 0.30 0.00 95 1010.3
20260830093900 67 190 2.6 5.2 0.00 0.30 0.00 95 1010.3
20260830093805 67 190 2.6 5.2 0.00 0.30 0.00 95 1010.3
20260830093712 67 190 3.5 5.2 0.00 0.30 0.00 95 1010.3
20260830093621 67 190 3.5 5.2 0.00 0.30 0.00 95 1010.3
20260830093506 67 189 3.5 5.2 0.00 0.30 0.00 95 1010.3
20260830093412 67 188 3.5 5.2 0.00 0.30 0.00 95 1010.2
20260830093318 67 187 2.6 5.2 0.00 0.30 0.00 95 1010.3
20260830093203 67 187 3.5 5.2 0.00 0.30 0.00 95 1010.2
20260830093108 67 187 3.5 5.2 0.00 0.30 0.00 95 1010.2
20260830093015 67 188 3.5 5.2 0.00 0.30 0.00 95 1010.2
20260830092923 67 188 3.5 5.2 0.00 0.30 0.00 95 1010.2
20260830092808 67 188 3.5 5.2 0.00 0.30 0.00 95 1010.2
20260830092734 67 184 3.5 5.2 0.00 0.30 0.00 95 1010.2
20260830092619 67 182 3.5 5.2 0.00 0.30 0.00 95 1010.2
20260830092523 67 179 3.5 5.2 0.00 0.30 0.00 95 1010.2
20260830092408 67 182 2.6 5.2 0.00 0.30 0.00 95 1010.2
20260830092253 67 178 2.6 3.5 0.00 0.30 0.00 95 1010.2
20260830092204 67 178 2.6 3.5 0.00 0.30 0.00 95 1010.2
20260830092109 67 178 1.7 3.5 0.00 0.30 0.00 95 1010.2
20260830091954 67 178 2.6 3.5 0.00 0.30 0.00 95 1010.3
20260830091859 67 178 1.7 4.3 0.00 0.30 0.00 95 1010.3
20260830091805 67 178 2.6 4.3 0.00 0.30 0.00 95 1010.3
20260830091711 67 178 2.6 5.2 0.00 0.30 0.00 95 1010.3
20260830091601 67 178 2.6 5.2 0.00 0.30 0.00 95 1010.3
20260830091506 67 178 1.7 5.2 0.00 0.30 0.00 95 1010.3
20260830091431 67 177 1.7 5.2 0.00 0.30 0.00 95 1010.4
20260830091257 67 177 1.7 5.2 0.00 0.30 0.00 95 1010.2
20260830091202 67 177 1.7 5.2 0.00 0.30 0.00 95 1010.2
20260830091109 67 177 2.6 5.2 0.00 0.30 0.00 95 1010.2
20260830090958 67 178 2.6 5.2 0.00 0.30 0.00 95 1010.2
20260830090904 67 178 2.6 5.2 0.00 0.30 0.00 95 1010.2
20260830090809 67 184 2.6 3.5 0.00 0.30 0.00 95 1010.2
20260830090656 67 184 2.6 3.5 0.00 0.30 0.00 95 1010.2
20260830090601 67 185 1.7 4.3 0.00 0.30 0.00 95 1010.2
20260830090506 67 185 1.7 4.3 0.00 0.30 0.00 95 1010.2
20260830090357 67 185 1.7 4.3 0.00 0.30 0.00 95 1010.3
20260830090302 67 185 1.7 4.3 0.00 0.30 0.00 95 1010.2
20260830090208 67 185 1.7 4.3 0.00 0.30 0.00 95 1010.2
20260830090115 67 185 2.6 4.3 0.00 0.31 0.00 95 1010.3
20260830090000 67 185 2.6 4.3 0.00 0.31 0.00 95 1010.2
20260830085905 67 185 2.6 4.3 0.00 0.31 0.00 95 1010.2
20260830085815 67 185 2.6 4.3 0.00 0.31 0.00 95 1010.3
20260830085659 67 185 2.6 4.3 0.00 0.31 0.00 95 1010.4
20260830085605 67 184 3.5 5.2 0.00 0.31 0.00 95 1010.4
20260830085511 67 184 3.5 5.2 0.00 0.31 0.00 95 1010.3
20260830085357 67 170 3.5 5.2 0.00 0.31 0.00 95 1010.4
20260830085323 67 170 3.5 5.2 0.00 0.31 0.00 95 1010.3
20260830085211 67 169 3.5 5.2 0.00 0.31 0.00 94 1010.3
20260830085058 67 169 3.5 5.2 0.00 0.31 0.00 95 1010.2
20260830085003 67 169 3.5 5.2 0.00 0.31 0.00 95 1010.2
20260830084908 67 169 4.3 5.2 0.00 0.31 0.00 95 1010.2
20260830084814 67 168 3.5 5.2 0.00 0.31 0.00 95 1010.2
20260830084659 67 167 2.6 4.3 0.00 0.31 0.00 95 1010.2
20260830084626 67 167 2.6 4.3 0.00 0.31 0.00 94 1010.2
20260830084454 67 167 1.7 2.6 0.00 0.31 0.00 94 1010.3
20260830084420 67 167 2.6 2.6 0.00 0.31 0.00 94 1010.4
20260830084306 67 167 2.6 3.5 0.00 0.31 0.00 95 1010.4
20260830084231 67 167 2.6 3.5 0.00 0.31 0.00 95 1010.4
20260830084057 67 167 2.6 3.5 0.00 0.31 0.00 95 1010.4
20260830084002 67 167 2.6 3.5 0.00 0.31 0.00 95 1010.4
20260830083928 67 167 2.6 3.5 0.00 0.31 0.00 95 1010.4
20260830083756 67 167 1.7 3.5 0.00 0.31 0.00 95 1010.5
20260830083701 67 167 1.7 2.6 0.00 0.31 0.00 95 1010.5
20260830083607 67 167 0.9 2.6 0.00 0.31 0.00 95 1010.5
20260830083513 67 167 1.7 2.6 0.00 0.31 0.00 94 1010.5
20260830083358 67 167 1.7 2.6 0.00 0.31 0.00 94 1010.5
20260830083308 67 167 1.7 3.5 0.00 0.31 0.00 94 1010.5
20260830083155 67 167 1.7 3.5 0.00 0.31 0.00 94 1010.6
20260830083100 67 167 1.7 3.5 0.00 0.31 0.00 94 1010.6
20260830083026 67 167 1.7 2.6 0.00 0.31 0.00 94 1010.6
20260830082932 67 167 1.7 2.6 0.00 0.31 0.00 94 1010.6
20260830082756 67 167 2.6 2.6 0.00 0.31 0.00 94 1010.5
20260830082702 67 167 2.6 2.6 0.00 0.31 0.00 94 1010.6
20260830082631 67 167 2.6 3.5 0.00 0.31 0.00 94 1010.6
20260830082516 67 167 2.6 3.5 0.00 0.31 0.00 94 1010.7
20260830082400 67 167 1.7 3.5 0.00 0.31 0.00 94 1010.7
20260830082306 67 167 1.7 2.6 0.00 0.31 0.00 94 1010.7
20260830082211 67 167 0.9 2.6 0.00 0.31 0.00 94 1010.6
20260830082057 67 167 0.9 2.6 0.00 0.31 0.00 94 1010.6
20260830082007 67 167 0.9 2.6 0.00 0.31 0.00 94 1010.6
20260830081853 67 167 0.9 4.3 0.00 0.31 0.00 94 1010.5
20260830081819 67 167 0.9 4.3 0.00 0.31 0.00 94 1010.4
20260830081724 67 167 0.9 4.3 0.00 0.31 0.00 94 1010.5
20260830081628 67 167 0.9 4.3 0.00 0.31 0.00 94 1010.5
20260830081453 67 167 1.7 4.3 0.00 0.31 0.00 94 1010.4
20260830081359 67 167 2.6 4.3 0.00 0.31 0.00 94 1010.3
20260830081309 67 167 2.6 4.3 0.00 0.31 0.00 94 1010.3
20260830081155 67 167 2.6 4.3 0.00 0.31 0.00 94 1010.2
20260830081100 67 167 3.5 4.3 0.00 0.31 0.00 94 1010.4
20260830081006 67 168 2.6 4.3 0.00 0.31 0.00 94 1010.4
20260830080912 67 169 1.7 3.5 0.00 0.31 0.00 94 1010.3
20260830080757 67 170 2.6 3.5 0.00 0.31 0.00 94 1010.5
20260830080707 67 170 2.6 4.3 0.00 0.31 0.00 94 1010.5
20260830080612 67 174 1.7 4.3 0.00 0.31 0.00 94 1010.4
20260830080518 67 178 1.7 2.6 0.00 0.31 0.00 94 1010.5
20260830080423 67 184 1.7 3.5 0.00 0.31 0.00 94 1010.5
20260830080307 67 184 1.7 3.5 0.00 0.31 0.00 94 1010.5
20260830080154 67 184 1.7 3.5 0.00 0.31 0.00 94 1010.6
20260830080104 67 184 1.7 3.5 0.00 0.31 0.00 94 1010.7
20260830080009 67 184 1.7 3.5 0.00 0.31 0.00 94 1010.7
20260830075915 67 184 1.7 3.5 0.00 0.31 0.00 94 1010.7
20260830075759 67 184 1.7 3.5 0.00 0.31 0.00 94 1010.7
20260830075705 67 184 1.7 3.5 0.00 0.31 0.00 94 1010.7
20260830075610 67 184 1.7 3.5 0.00 0.31 0.00 94 1010.7
20260830075500 67 185 0.9 2.6 0.00 0.31 0.00 94 1010.7
20260830075405 67 185 0.9 2.6 0.00 0.31 0.00 94 1010.7
20260830075310 67 185 0.9 2.6 0.00 0.31 0.00 94 1010.7
20260830075156 67 185 1.7 2.6 0.00 0.31 0.00 94 1010.7
20260830075102 67 185 1.7 2.6 0.00 0.31 0.00 94 1010.7
20260830075008 67 185 1.7 4.3 0.00 0.31 0.00 94 1010.7
20260830074857 67 185 1.7 4.3 0.00 0.31 0.00 94 1010.7
20260830074804 67 185 0.9 4.3 0.00 0.31 0.00 94 1010.7
20260830074729 67 185 0.9 4.3 0.00 0.31 0.00 94 1010.7
20260830074553 67 185 0.9 4.3 0.00 0.31 0.00 94 1010.7
20260830074520 67 185 0.9 4.3 0.00 0.31 0.00 94 1010.7
20260830074404 67 185 1.7 4.3 0.00 0.31 0.00 94 1010.8
20260830074329 67 185 2.6 4.3 0.00 0.31 0.00 94 1010.8
20260830074158 67 185 2.6 4.3 0.00 0.31 0.00 94 1010.7
20260830074103 67 185 2.6 5.2 0.00 0.31 0.00 94 1010.7
20260830074009 67 184 1.7 5.2 0.00 0.31 0.00 94 1010.7
20260830073854 67 184 1.7 5.2 0.00 0.31 0.00 94 1010.7
20260830073800 67 184 1.7 5.2 0.00 0.31 0.00 94 1010.6
20260830073706 67 184 2.6 5.2 0.00 0.31 0.00 94 1010.6
20260830073557 67 184 2.6 5.2 0.00 0.31 0.00 94 1010.6
20260830073502 68 185 2.6 5.2 0.00 0.31 0.00 94 1010.6
20260830073408 67 188 2.6 5.2 0.00 0.31 0.00 94 1010.6
20260830073254 67 190 2.6 5.2 0.00 0.31 0.00 94 1010.6
20260830073159 67 182 2.6 5.2 0.00 0.31 0.00 94 1010.7
20260830073125 67 178 2.6 5.2 0.00 0.31 0.00 94 1010.7
20260830072954 67 188 2.6 5.2 0.00 0.31 0.00 94 1010.7
20260830072919 67 190 3.5 5.2 0.00 0.31 0.00 94 1010.7
20260830072824 67 189 3.5 5.2 0.00 0.31 0.00 94 1010.7
20260830072709 67 175 3.5 5.2 0.00 0.31 0.00 94 1010.7
20260830072555 67 162 3.5 5.2 0.00 0.31 0.00 94 1010.7
20260830072521 67 169 3.5 5.2 0.00 0.31 0.00 94 1010.8
20260830072407 67 167 3.5 5.2 0.00 0.31 0.00 94 1010.8
20260830072257 67 167 3.5 5.2 0.00 0.31 0.00 94 1010.8
20260830072202 67 165 3.5 4.3 0.00 0.31 0.00 94 1010.8
20260830072108 67 165 3.5 4.3 0.00 0.31 0.00 94 1010.8
20260830071953 67 182 2.6 4.3 0.00 0.31 0.00 94 1010.9
20260830071859 68 182 1.7 4.3 0.00 0.31 0.00 94 1011.0
20260830071809 67 182 2.6 4.3 0.00 0.31 0.00 94 1011.0
20260830071655 67 182 2.6 4.3 0.00 0.31 0.00 94 1011.0
20260830071601 68 182 2.6 4.3 0.00 0.31 0.00 94 1011.0
20260830071507 67 182 1.7 4.3 0.00 0.31 0.00 94 1011.0
20260830071411 68 181 1.7 4.3 0.00 0.31 0.00 94 1010.9
20260830071256 67 181 1.7 4.3 0.00 0.31 0.00 94 1010.9
20260830071223 67 181 2.6 4.3 0.00 0.31 0.00 94 1011.0
20260830071111 68 181 2.6 4.3 0.00 0.31 0.00 94 1011.0
20260830070957 68 181 2.6 4.3 0.00 0.31 0.00 94 1011.0
20260830070903 68 181 2.6 5.2 0.00 0.31 0.00 94 1010.9
20260830070809 68 181 2.6 5.2 0.00 0.31 0.00 94 1010.9
20260830070656 68 180 2.6 5.2 0.00 0.31 0.00 94 1010.9
20260830070605 68 180 2.6 5.2 0.00 0.31 0.00 94 1010.9
20260830070532 68 180 2.6 5.2 0.00 0.31 0.00 94 1010.9
20260830070416 68 180 2.6 5.2 0.00 0.31 0.00 94 1010.9
20260830070301 68 180 2.6 5.2 0.00 0.31 0.00 94 1010.9
20260830070227 68 180 2.6 5.2 0.00 0.31 0.00 94 1010.9
20260830070112 68 180 3.5 5.2 0.00 0.31 0.00 94 1010.9
20260830065958 68 180 3.5 5.2 0.00 0.31 0.00 93 1010.9
20260830065908 68 173 3.5 4.3 0.00 0.31 0.00 93 1010.9
20260830065754 68 170 3.5 5.2 0.00 0.31 0.00 93 1010.9
20260830065700 68 170 3.5 5.2 0.00 0.31 0.00 93 1010.9
20260830065604 68 169 4.3 5.2 0.00 0.31 0.00 93 1010.8
20260830065509 68 169 3.5 5.2 0.00 0.31 0.00 93 1010.8
20260830065415 68 169 2.6 5.2 0.00 0.31 0.00 93 1010.9
20260830065306 68 169 3.5 5.2 0.00 0.31 0.00 93 1010.9
20260830065230 68 168 3.5 5.2 0.00 0.31 0.00 93 1010.7
20260830065116 68 169 3.5 5.2 0.00 0.31 0.00 93 1010.8
20260830064954 68 167 2.6 5.2 0.00 0.31 0.00 93 1010.9
20260830064859 68 170 1.7 3.5 0.00 0.31 0.00 93 1010.8
20260830064825 68 171 1.7 3.5 0.00 0.31 0.00 93 1010.8
20260830064709 68 171 2.6 3.5 0.00 0.31 0.00 93 1010.8
20260830064559 68 171 2.6 4.3 0.00 0.31 0.00 93 1010.9
20260830064505 68 173 3.5 4.3 0.00 0.31 0.00 93 1010.9
20260830064410 68 173 2.6 4.3 0.00 0.31 0.00 93 1010.9
20260830064316 68 175 2.6 4.3 0.00 0.31 0.00 93 1010.9
20260830064200 68 180 2.6 4.3 0.00 0.31 0.00 93 1010.9
20260830064107 68 180 2.6 4.3 0.00 0.31 0.00 93 1010.9
20260830064016 68 180 1.7 4.3 0.00 0.31 0.00 93 1010.8
20260830063920 68 182 1.7 4.3 0.00 0.31 0.00 93 1010.9
20260830063805 68 182 2.6 4.3 0.00 0.31 0.00 93 1010.9
20260830063711 68 183 2.6 4.3 0.00 0.31 0.00 93 1010.9
20260830063557 68 182 2.6 4.3 0.00 0.31 0.00 93 1010.9
20260830063523 68 182 2.6 4.3 0.00 0.31 0.00 93 1010.9
20260830063428 68 182 2.6 4.3 0.00 0.31 0.00 93 1010.9
20260830063332 68 184 2.6 4.3 0.00 0.31 0.00 93 1010.9
20260830063202 68 183 3.5 5.2 0.00 0.31 0.00 93 1010.8
20260830063107 68 182 2.6 5.2 0.00 0.31 0.00 93 1010.8
20260830063012 68 181 2.6 5.2 0.00 0.31 0.00 93 1011.0
20260830062858 68 180 1.7 6.1 0.00 0.31 0.00 93 1011.0
20260830062804 68 180 2.6 6.1 0.00 0.31 0.00 93 1011.1
20260830062653 68 180 2.6 6.1 0.00 0.31 0.00 93 1011.0
20260830062559 68 173 3.5 6.1 0.00 0.31 0.00 93 1011.1
20260830062504 68 173 4.3 6.1 0.00 0.31 0.00 93 1011.1
20260830062409 68 171 4.3 6.1 0.00 0.31 0.00 93 1011.1
20260830062255 68 169 3.5 6.1 0.00 0.31 0.00 93 1011.1
20260830062221 68 168 3.5 6.1 0.00 0.31 0.00 93 1011.2
20260830062105 68 168 3.5 6.1 0.00 0.31 0.00 93 1011.2
20260830062015 68 169 2.6 3.5 0.00 0.31 0.00 93 1011.2
20260830061900 68 169 2.6 3.5 0.00 0.31 0.00 93 1011.3
20260830061805 68 169 2.6 3.5 0.00 0.31 0.00 93 1011.3
20260830061710 68 169 2.6 4.3 0.00 0.31 0.00 93 1011.2
20260830061556 68 169 3.5 3.5 0.00 0.31 0.00 93 1011.3
20260830061502 68 169 3.5 4.3 0.00 0.31 0.00 93 1011.2
20260830061411 68 169 2.6 4.3 0.00 0.31 0.00 93 1011.2
20260830061257 68 169 1.7 4.3 0.00 0.31 0.00 93 1011.3
20260830061202 68 169 1.7 4.3 0.00 0.31 0.00 93 1011.3
20260830061108 68 169 1.7 4.3 0.00 0.31 0.00 93 1011.3
20260830060955 68 169 1.7 4.3 0.00 0.31 0.00 93 1011.3
20260830060904 68 169 2.6 4.3 0.00 0.31 0.00 93 1011.3
20260830060810 68 169 1.7 4.3 0.00 0.31 0.00 93 1011.3
20260830060716 68 169 1.7 4.3 0.00 0.31 0.00 92 1011.3
20260830060622 68 169 2.6 4.3 0.00 0.31 0.00 92 1011.3
20260830060506 68 169 1.7 3.5 0.00 0.31 0.00 92 1011.3
20260830060411 68 169 2.6 3.5 0.00 0.31 0.00 92 1011.4
20260830060256 68 169 1.7 3.5 0.00 0.31 0.00 92 1011.4
20260830060226 68 169 2.6 3.5 0.00 0.31 0.00 92 1011.4
20260830060112 68 169 2.6 3.5 0.00 0.31 0.00 92 1011.4
20260830055957 68 169 1.7 4.3 0.00 0.31 0.00 92 1011.4
20260830055903 68 171 0.9 3.5 0.00 0.31 0.00 92 1011.4
20260830055808 68 171 1.7 2.6 0.00 0.31 0.00 92 1011.4
20260830055733 69 171 2.6 3.5 0.00 0.31 0.00 92 1011.4
20260830055618 69 171 1.7 3.5 0.00 0.31 0.00 92 1011.4
20260830055507 69 171 0.9 3.5 0.00 0.31 0.00 92 1011.4
20260830055354 69 171 1.7 3.5 0.00 0.31 0.00 92 1011.4
20260830055259 69 171 1.7 2.6 0.00 0.31 0.00 92 1011.3
20260830055225 69 171 1.7 2.6 0.00 0.31 0.00 92 1011.4
20260830055107 69 173 1.7 2.6 0.00 0.31 0.00 92 1011.4
20260830054953 69 173 0.9 2.6 0.00 0.31 0.00 92 1011.4
20260830054919 69 173 0.9 3.5 0.00 0.31 0.00 92 1011.3
20260830054808 69 173 0.9 3.5 0.00 0.31 0.00 92 1011.3
20260830054654 69 173 0.9 3.5 0.00 0.31 0.00 92 1011.4
20260830054600 69 173 0.9 3.5 0.00 0.31 0.00 92 1011.4
20260830054526 69 173 1.7 3.5 0.00 0.31 0.00 92 1011.4
20260830054411 69 173 1.7 3.5 0.00 0.31 0.00 92 1011.4
20260830054256 69 173 1.7 3.5 0.00 0.31 0.00 92 1011.3
20260830054206 69 173 1.7 3.5 0.00 0.31 0.00 92 1011.3
20260830054131 69 173 1.7 4.3 0.00 0.31 0.00 92 1011.3
20260830053955 69 173 0.9 2.6 0.00 0.31 0.00 92 1011.3
20260830053901 69 173 0.9 2.6 0.00 0.31 0.00 92 1011.4
20260830053827 69 173 0.9 2.6 0.00 0.31 0.00 92 1011.4
20260830053732 69 173 0.9 2.6 0.00 0.31 0.00 92 1011.4
20260830053555 69 173 1.7 2.6 0.00 0.31 0.00 92 1011.3
20260830053500 69 173 1.7 2.6 0.00 0.31 0.00 92 1011.3
20260830053410 69 173 1.7 2.6 0.00 0.31 0.00 92 1011.3
20260830053256 69 174 1.7 2.6 0.00 0.31 0.00 92 1011.3
20260830053202 69 174 1.7 2.6 0.00 0.31 0.00 92 1011.3
20260830053108 69 174 1.7 2.6 0.00 0.31 0.00 92 1011.3
20260830052954 69 174 1.7 2.6 0.00 0.31 0.00 92 1011.3
20260830052905 69 174 1.7 2.6 0.00 0.31 0.00 92 1011.3
20260830052830 69 174 1.7 2.6 0.00 0.31 0.00 92 1011.3
20260830052715 69 174 0.9 2.6 0.00 0.31 0.00 92 1011.3
20260830052601 69 174 0.9 2.6 0.00 0.31 0.00 92 1011.3